Wetterdaten: aktuell Freitag, 07.08.2020 15:04
Datum Zeit Temp. Aussen Temp. o. S. Temp +5cm Feuchte Auss Luftdruck Regen Sonnenschein Regendauer Solar Windben Empfang
07.08.2020 15:04 35,7 C 41,1 C 34,4 C 36 % 1019,2 hPa 0,0 l/m 2 min 0 min 852 W/m 6,4 km/h (2 Bft) 100,00 %
07.08.2020 15:02 35,7 C 40,6 C 34,4 C 37 % 1019,2 hPa 0,0 l/m 2 min 0 min 859 W/m 12,9 km/h (3 Bft) 97,87 %
07.08.2020 15:00 35,6 C 41,1 C 34,4 C 35 % 1019,2 hPa 0,0 l/m 2 min 0 min 858 W/m 9,7 km/h (2 Bft) 95,74 %
07.08.2020 14:58 35,4 C 41,1 C 33,9 C 38 % 1019,2 hPa 0,0 l/m 2 min 0 min 861 W/m 9,7 km/h (2 Bft) 97,92 %
07.08.2020 14:56 35,3 C 40,6 C 33,9 C 37 % 1019,2 hPa 0,0 l/m 2 min 0 min 861 W/m 9,7 km/h (2 Bft) 97,96 %
07.08.2020 14:54 35,2 C 40,0 C 33,9 C 34 % 1019,2 hPa 0,0 l/m 2 min 0 min 864 W/m 12,9 km/h (3 Bft) 97,92 %
07.08.2020 14:52 35,2 C 40,0 C 33,9 C 34 % 1019,2 hPa 0,0 l/m 2 min 0 min 868 W/m 16,1 km/h (3 Bft) 98,15 %
07.08.2020 14:50 35,2 C 39,4 C 33,9 C 35 % 1019,3 hPa 0,0 l/m 2 min 0 min 871 W/m 19,3 km/h (3 Bft) 97,14 %
07.08.2020 14:48 35,2 C 39,4 C 33,3 C 34 % 1019,2 hPa 0,0 l/m 2 min 0 min 872 W/m 12,9 km/h (3 Bft) 97,87 %
07.08.2020 14:46 35,2 C 39,4 C 33,3 C 34 % 1019,3 hPa 0,0 l/m 2 min 0 min 876 W/m 16,1 km/h (3 Bft) 97,83 %
07.08.2020 14:44 35,2 C 40,6 C 33,3 C 34 % 1019,3 hPa 0,0 l/m 2 min 0 min 875 W/m 12,9 km/h (3 Bft) 95,74 %
07.08.2020 14:42 35,2 C 40,0 C 33,3 C 37 % 1019,3 hPa 0,0 l/m 2 min 0 min 877 W/m 6,4 km/h (2 Bft) 100,00 %
07.08.2020 14:40 35,1 C 40,0 C 33,3 C 35 % 1019,3 hPa 0,0 l/m 2 min 0 min 880 W/m 9,7 km/h (2 Bft) 97,87 %
07.08.2020 14:38 35,1 C 39,4 C 33,3 C 36 % 1019,3 hPa 0,0 l/m 2 min 0 min 879 W/m 9,7 km/h (2 Bft) 97,92 %
07.08.2020 14:36 35,2 C 39,4 C 33,3 C 34 % 1019,3 hPa 0,0 l/m 2 min 0 min 883 W/m 12,9 km/h (3 Bft) 95,74 %
07.08.2020 14:34 35,3 C 40,0 C 33,3 C 34 % 1019,3 hPa 0,0 l/m 2 min 0 min 890 W/m 12,9 km/h (3 Bft) 97,87 %
07.08.2020 14:32 35,3 C 39,4 C 33,9 C 34 % 1019,4 hPa 0,0 l/m 2 min 0 min 893 W/m 12,9 km/h (3 Bft) 97,87 %
07.08.2020 14:30 35,3 C 39,4 C 34,4 C 34 % 1019,4 hPa 0,0 l/m 2 min 0 min 896 W/m 12,9 km/h (3 Bft) 97,87 %
07.08.2020 14:28 35,3 C 38,9 C 34,4 C 34 % 1019,4 hPa 0,0 l/m 2 min 0 min 897 W/m 12,9 km/h (3 Bft) 93,75 %
07.08.2020 14:26 35,4 C 39,4 C 34,4 C 35 % 1019,4 hPa 0,0 l/m 2 min 0 min 900 W/m 12,9 km/h (3 Bft) 97,87 %
07.08.2020 14:24 35,4 C 39,4 C 35,6 C 35 % 1019,4 hPa 0,0 l/m 2 min 0 min 894 W/m 16,1 km/h (3 Bft) 98,18 %
07.08.2020 14:22 35,4 C 38,9 C 36,1 C 35 % 1019,4 hPa 0,0 l/m 2 min 0 min 893 W/m 19,3 km/h (3 Bft) 97,22 %
07.08.2020 14:20 35,4 C 40,0 C 37,2 C 35 % 1019,4 hPa 0,0 l/m 2 min 0 min 896 W/m 12,9 km/h (3 Bft) 97,87 %
07.08.2020 14:18 35,4 C 40,0 C 37,2 C 36 % 1019,4 hPa 0,0 l/m 2 min 0 min 893 W/m 12,9 km/h (3 Bft) 100,00 %
07.08.2020 14:16 35,4 C 40,0 C 36,1 C 36 % 1019,5 hPa 0,0 l/m 2 min 0 min 893 W/m 6,4 km/h (2 Bft) 95,74 %
07.08.2020 14:14 35,4 C 39,4 C 36,1 C 35 % 1019,5 hPa 0,0 l/m 2 min 0 min 888 W/m 12,9 km/h (3 Bft) 97,87 %
07.08.2020 14:12 35,4 C 39,4 C 37,2 C 35 % 1019,5 hPa 0,0 l/m 2 min 0 min 889 W/m 12,9 km/h (3 Bft) 100,00 %
07.08.2020 14:10 35,4 C 40,0 C 38,9 C 36 % 1019,5 hPa 0,0 l/m 2 min 0 min 888 W/m 9,7 km/h (2 Bft) 100,00 %
07.08.2020 14:08 35,4 C 40,0 C 40,0 C 36 % 1019,5 hPa 0,0 l/m 2 min 0 min 892 W/m 9,7 km/h (2 Bft) 100,00 %
07.08.2020 14:06 35,4 C 40,0 C 40,0 C 36 % 1019,5 hPa 0,0 l/m 2 min 0 min 895 W/m 12,9 km/h (3 Bft) 100,00 %
07.08.2020 14:04 35,3 C 40,0 C 37,8 C 36 % 1019,5 hPa 0,0 l/m 2 min 0 min 892 W/m 12,9 km/h (3 Bft) 100,00 %
07.08.2020 14:02 35,3 C 40,0 C 35,0 C 37 % 1019,5 hPa 0,0 l/m 2 min 0 min 902 W/m 16,1 km/h (3 Bft) 100,00 %
07.08.2020 14:00 35,3 C 40,6 C 35,0 C 39 % 1019,5 hPa 0,0 l/m 2 min 0 min 903 W/m 12,9 km/h (3 Bft) 97,83 %
07.08.2020 13:58 35,2 C 40,6 C 34,4 C 38 % 1019,5 hPa 0,0 l/m 2 min 0 min 895 W/m 12,9 km/h (3 Bft) 97,87 %
07.08.2020 13:56 35,2 C 40,6 C 33,9 C 39 % 1019,5 hPa 0,0 l/m 2 min 0 min 890 W/m 12,9 km/h (3 Bft) 97,87 %
07.08.2020 13:54 35,1 C 40,0 C 33,9 C 37 % 1019,5 hPa 0,0 l/m 2 min 0 min 891 W/m 6,4 km/h (2 Bft) 97,87 %
07.08.2020 13:52 35,1 C 40,0 C 33,3 C 37 % 1019,5 hPa 0,0 l/m 2 min 0 min 891 W/m 16,1 km/h (3 Bft) 95,74 %
07.08.2020 13:50 35,0 C 41,7 C 33,3 C 41 % 1019,5 hPa 0,0 l/m 2 min 0 min 894 W/m 6,4 km/h (2 Bft) 98,00 %
07.08.2020 13:48 34,9 C 41,1 C 33,3 C 38 % 1019,6 hPa 0,0 l/m 2 min 0 min 896 W/m 12,9 km/h (3 Bft) 95,83 %
07.08.2020 13:46 34,8 C 41,1 C 32,8 C 39 % 1019,6 hPa 0,0 l/m 2 min 0 min 896 W/m 3,2 km/h (1 Bft) 97,62 %
07.08.2020 13:44 34,7 C 40,0 C 32,8 C 38 % 1019,6 hPa 0,0 l/m 2 min 0 min 895 W/m 6,4 km/h (2 Bft) 95,74 %
07.08.2020 13:42 34,7 C 39,4 C 32,8 C 37 % 1019,6 hPa 0,0 l/m 2 min 0 min 897 W/m 6,4 km/h (2 Bft) 95,74 %
07.08.2020 13:40 34,6 C 38,9 C 32,8 C 37 % 1019,7 hPa 0,0 l/m 2 min 0 min 896 W/m 12,9 km/h (3 Bft) 95,74 %
07.08.2020 13:38 34,6 C 38,9 C 32,8 C 37 % 1019,7 hPa 0,0 l/m 2 min 0 min 894 W/m 12,9 km/h (3 Bft) 95,74 %
07.08.2020 13:36 34,6 C 38,9 C 32,2 C 37 % 1019,7 hPa 0,0 l/m 2 min 0 min 891 W/m 22,5 km/h (4 Bft) 97,83 %
07.08.2020 13:34 34,6 C 38,9 C 32,2 C 37 % 1019,7 hPa 0,0 l/m 2 min 0 min 890 W/m 16,1 km/h (3 Bft) 97,92 %
07.08.2020 13:32 34,6 C 39,4 C 32,2 C 38 % 1019,7 hPa 0,0 l/m 2 min 0 min 891 W/m 6,4 km/h (2 Bft) 97,96 %
07.08.2020 13:30 34,5 C 38,9 C 32,2 C 38 % 1019,7 hPa 0,0 l/m 2 min 0 min 892 W/m 19,3 km/h (3 Bft) 97,92 %
07.08.2020 13:28 34,5 C 38,9 C 32,8 C 37 % 1019,8 hPa 0,0 l/m 2 min 0 min 888 W/m 12,9 km/h (3 Bft) 97,67 %
07.08.2020 13:26 34,5 C 38,3 C 32,2 C 38 % 1019,8 hPa 0,0 l/m 2 min 0 min 882 W/m 19,3 km/h (3 Bft) 95,74 %
07.08.2020 13:24 34,4 C 38,9 C 32,2 C 37 % 1019,8 hPa 0,0 l/m 2 min 0 min 883 W/m 16,1 km/h (3 Bft) 97,83 %
07.08.2020 13:22 34,4 C 39,4 C 32,2 C 37 % 1019,8 hPa 0,0 l/m 2 min 0 min 887 W/m 12,9 km/h (3 Bft) 97,87 %
07.08.2020 13:20 34,4 C 38,9 C 32,2 C 37 % 1019,9 hPa 0,0 l/m 2 min 0 min 887 W/m 12,9 km/h (3 Bft) 97,87 %
07.08.2020 13:18 34,4 C 38,9 C 32,2 C 37 % 1019,9 hPa 0,0 l/m 2 min 0 min 877 W/m 16,1 km/h (3 Bft) 100,00 %
07.08.2020 13:16 34,4 C 37,8 C 32,2 C 37 % 1019,9 hPa 0,0 l/m 2 min 0 min 878 W/m 16,1 km/h (3 Bft) 95,74 %
07.08.2020 13:14 34,5 C 37,8 C 32,2 C 37 % 1019,9 hPa 0,0 l/m 2 min 0 min 878 W/m 12,9 km/h (3 Bft) 97,92 %
07.08.2020 13:12 34,5 C 37,8 C 32,2 C 36 % 1019,9 hPa 0,0 l/m 2 min 0 min 881 W/m 19,3 km/h (3 Bft) 100,00 %
07.08.2020 13:10 34,6 C 38,9 C 32,2 C 38 % 1019,8 hPa 0,0 l/m 2 min 0 min 881 W/m 12,9 km/h (3 Bft) 97,92 %
07.08.2020 13:08 34,6 C 39,4 C 32,2 C 40 % 1020,0 hPa 0,0 l/m 2 min 0 min 879 W/m 16,1 km/h (3 Bft) 100,00 %
07.08.2020 13:06 34,5 C 39,4 C 31,7 C 38 % 1019,9 hPa 0,0 l/m 2 min 0 min 874 W/m 12,9 km/h (3 Bft) 100,00 %
07.08.2020 13:04 34,5 C 38,9 C 31,7 C 37 % 1019,9 hPa 0,0 l/m 2 min 0 min 871 W/m 12,9 km/h (3 Bft) 100,00 %
07.08.2020 13:02 34,5 C 38,9 C 31,7 C 37 % 1020,0 hPa 0,0 l/m 2 min 0 min 874 W/m 12,9 km/h (3 Bft) 100,00 %
07.08.2020 13:00 34,5 C 39,4 C 31,7 C 38 % 1019,9 hPa 0,0 l/m 2 min 0 min 875 W/m 6,4 km/h (2 Bft) 97,92 %
07.08.2020 12:58 34,5 C 40,0 C 31,7 C 39 % 1020,0 hPa 0,0 l/m 2 min 0 min 877 W/m 6,4 km/h (2 Bft) 100,00 %
07.08.2020 12:56 34,5 C 39,4 C 31,7 C 40 % 1020,0 hPa 0,0 l/m 2 min 0 min 870 W/m 12,9 km/h (3 Bft) 97,87 %
07.08.2020 12:54 34,4 C 39,4 C 31,7 C 41 % 1020,0 hPa 0,0 l/m 2 min 0 min 865 W/m 6,4 km/h (2 Bft) 97,87 %
07.08.2020 12:52 34,4 C 39,4 C 31,1 C 39 % 1020,0 hPa 0,0 l/m 2 min 0 min 867 W/m 6,4 km/h (2 Bft) 95,74 %
07.08.2020 12:50 34,4 C 38,9 C 31,1 C 39 % 1020,0 hPa 0,0 l/m 2 min 0 min 864 W/m 22,5 km/h (4 Bft) 100,00 %
07.08.2020 12:48 34,4 C 40,0 C 31,1 C 41 % 1020,0 hPa 0,0 l/m 2 min 0 min 863 W/m 9,7 km/h (2 Bft) 100,00 %
07.08.2020 12:46 34,3 C 40,0 C 31,1 C 42 % 1019,9 hPa 0,0 l/m 2 min 0 min 863 W/m 6,4 km/h (2 Bft) 94,59 %
07.08.2020 12:44 34,3 C 39,4 C 31,1 C 42 % 1020,0 hPa 0,0 l/m 2 min 0 min 862 W/m 9,7 km/h (2 Bft) 100,00 %
07.08.2020 12:42 34,2 C 38,9 C 31,1 C 40 % 1020,0 hPa 0,0 l/m 2 min 0 min 856 W/m 12,9 km/h (3 Bft) 97,87 %
07.08.2020 12:40 34,2 C 39,4 C 31,1 C 40 % 1020,0 hPa 0,0 l/m 2 min 0 min 853 W/m 12,9 km/h (3 Bft) 98,15 %
07.08.2020 12:38 34,2 C 40,0 C 30,6 C 41 % 1020,0 hPa 0,0 l/m 2 min 0 min 852 W/m 12,9 km/h (3 Bft) 100,00 %
07.08.2020 12:36 34,2 C 40,0 C 30,6 C 42 % 1020,0 hPa 0,0 l/m 2 min 0 min 853 W/m 6,4 km/h (2 Bft) 100,00 %
07.08.2020 12:34 34,1 C 40,6 C 30,6 C 44 % 1020,1 hPa 0,0 l/m 2 min 0 min 849 W/m 6,4 km/h (2 Bft) 100,00 %
07.08.2020 12:32 34,0 C 39,4 C 30,6 C 42 % 1020,1 hPa 0,0 l/m 2 min 0 min 848 W/m 9,7 km/h (2 Bft) 94,87 %
07.08.2020 12:30 34,0 C 40,0 C 30,6 C 42 % 1020,1 hPa 0,0 l/m 2 min 0 min 852 W/m 3,2 km/h (1 Bft) 97,87 %
07.08.2020 12:28 33,9 C 39,4 C 30,6 C 41 % 1020,1 hPa 0,0 l/m 2 min 0 min 848 W/m 6,4 km/h (2 Bft) 100,00 %
07.08.2020 12:26 33,9 C 37,8 C 30,6 C 40 % 1020,1 hPa 0,0 l/m 2 min 0 min 842 W/m 6,4 km/h (2 Bft) 100,00 %
07.08.2020 12:24 33,8 C 37,8 C 30,6 C 40 % 1020,1 hPa 0,0 l/m 2 min 0 min 837 W/m 16,1 km/h (3 Bft) 93,75 %
07.08.2020 12:22 33,8 C 37,8 C 30,6 C 41 % 1020,1 hPa 0,0 l/m 2 min 0 min 833 W/m 16,1 km/h (3 Bft) 95,74 %
07.08.2020 12:20 33,8 C 38,3 C 30,6 C 41 % 1020,1 hPa 0,0 l/m 2 min 0 min 831 W/m 16,1 km/h (3 Bft) 95,74 %
07.08.2020 12:18 33,8 C 38,9 C 30,6 C 41 % 1020,1 hPa 0,0 l/m 2 min 0 min 833 W/m 6,4 km/h (2 Bft) 96,36 %
07.08.2020 12:16 33,7 C 38,9 C 30,6 C 40 % 1020,2 hPa 0,0 l/m 2 min 0 min 832 W/m 3,2 km/h (1 Bft) 93,48 %
07.08.2020 12:14 33,7 C 38,9 C 31,1 C 40 % 1020,2 hPa 0,0 l/m 2 min 0 min 831 W/m 16,1 km/h (3 Bft) 95,74 %
07.08.2020 12:12 33,6 C 38,9 C 31,1 C 40 % 1020,3 hPa 0,0 l/m 2 min 0 min 830 W/m 12,9 km/h (3 Bft) 93,75 %
07.08.2020 12:10 33,6 C 38,9 C 31,1 C 41 % 1020,3 hPa 0,0 l/m 2 min 0 min 830 W/m 12,9 km/h (3 Bft) 93,75 %
07.08.2020 12:08 33,5 C 38,3 C 30,6 C 41 % 1020,3 hPa 0,0 l/m 4 min 0 min 826 W/m 16,1 km/h (3 Bft) 95,51 %
07.08.2020 12:04 33,4 C 38,9 C 30,0 C 43 % 1020,3 hPa 0,0 l/m 2 min 0 min 821 W/m 16,1 km/h (3 Bft) 94,59 %
07.08.2020 12:02 33,4 C 38,3 C 30,6 C 42 % 1020,3 hPa 0,0 l/m 2 min 0 min 819 W/m 12,9 km/h (3 Bft) 91,67 %
07.08.2020 12:00 33,3 C 38,3 C 30,0 C 44 % 1020,3 hPa 0,0 l/m 2 min 0 min 816 W/m 6,4 km/h (2 Bft) 93,88 %
07.08.2020 11:58 33,3 C 37,8 C 30,0 C 41 % 1020,3 hPa 0,0 l/m 2 min 0 min 810 W/m 16,1 km/h (3 Bft) 93,62 %
07.08.2020 11:56 33,2 C 38,9 C 30,0 C 41 % 1020,3 hPa 0,0 l/m 2 min 0 min 805 W/m 12,9 km/h (3 Bft) 89,36 %
07.08.2020 11:54 33,2 C 38,9 C 30,0 C 42 % 1020,4 hPa 0,0 l/m 2 min 0 min 804 W/m 12,9 km/h (3 Bft) 91,67 %
07.08.2020 11:52 33,1 C 38,9 C 30,0 C 43 % 1020,4 hPa 0,0 l/m 2 min 0 min 803 W/m 16,1 km/h (3 Bft) 93,62 %
07.08.2020 11:50 33,1 C 39,4 C 30,0 C 43 % 1020,4 hPa 0,0 l/m 2 min 0 min 801 W/m 9,7 km/h (2 Bft) 91,49 %
07.08.2020 11:48 32,9 C 38,9 C 30,0 C 45 % 1020,4 hPa 0,0 l/m 2 min 0 min 799 W/m 3,2 km/h (1 Bft) 93,62 %
07.08.2020 11:46 32,9 C 38,3 C 30,0 C 46 % 1020,4 hPa 0,0 l/m 2 min 0 min 794 W/m 3,2 km/h (1 Bft) 94,34 %
07.08.2020 11:44 32,8 C 37,8 C 30,0 C 44 % 1020,4 hPa 0,0 l/m 2 min 0 min 790 W/m 9,7 km/h (2 Bft) 91,49 %
07.08.2020 11:42 32,7 C 37,8 C 30,0 C 44 % 1020,4 hPa 0,0 l/m 2 min 0 min 787 W/m 12,9 km/h (3 Bft) 93,48 %
07.08.2020 11:40 32,7 C 37,2 C 30,0 C 44 % 1020,4 hPa 0,0 l/m 2 min 0 min 783 W/m 16,1 km/h (3 Bft) 97,87 %
07.08.2020 11:38 32,6 C 37,2 C 29,4 C 43 % 1020,4 hPa 0,0 l/m 2 min 0 min 780 W/m 12,9 km/h (3 Bft) 95,74 %
07.08.2020 11:36 32,6 C 37,2 C 30,0 C 43 % 1020,4 hPa 0,0 l/m 2 min 0 min 775 W/m 16,1 km/h (3 Bft) 94,44 %
07.08.2020 11:34 32,5 C 37,8 C 30,0 C 44 % 1020,5 hPa 0,0 l/m 2 min 0 min 771 W/m 6,4 km/h (2 Bft) 95,83 %
07.08.2020 11:32 32,4 C 37,2 C 30,0 C 43 % 1020,5 hPa 0,0 l/m 2 min 0 min 766 W/m 12,9 km/h (3 Bft) 95,74 %
07.08.2020 11:30 32,4 C 36,7 C 30,0 C 44 % 1020,4 hPa 0,0 l/m 2 min 0 min 765 W/m 12,9 km/h (3 Bft) 97,92 %
07.08.2020 11:28 32,3 C 36,7 C 29,4 C 44 % 1020,5 hPa 0,0 l/m 2 min 0 min 761 W/m 12,9 km/h (3 Bft) 100,00 %
07.08.2020 11:26 32,3 C 37,2 C 30,0 C 44 % 1020,5 hPa 0,0 l/m 2 min 0 min 755 W/m 6,4 km/h (2 Bft) 95,74 %
07.08.2020 11:24 32,2 C 36,7 C 30,0 C 44 % 1020,5 hPa 0,0 l/m 2 min 0 min 752 W/m 12,9 km/h (3 Bft) 95,83 %
07.08.2020 11:22 32,2 C 37,2 C 30,0 C 45 % 1020,5 hPa 0,0 l/m 4 min 0 min 747 W/m 12,9 km/h (3 Bft) 100,00 %
07.08.2020 11:18 32,1 C 37,2 C 30,0 C 45 % 1020,5 hPa 0,0 l/m 2 min 0 min 741 W/m 12,9 km/h (3 Bft) 100,00 %
07.08.2020 11:16 32,0 C 36,7 C 30,0 C 45 % 1020,5 hPa 0,0 l/m 2 min 0 min 737 W/m 6,4 km/h (2 Bft) 100,00 %
07.08.2020 11:14 31,9 C 36,1 C 30,0 C 45 % 1020,5 hPa 0,0 l/m 2 min 0 min 730 W/m 12,9 km/h (3 Bft) 100,00 %
07.08.2020 11:12 31,8 C 36,7 C 30,0 C 46 % 1020,5 hPa 0,0 l/m 2 min 0 min 728 W/m 16,1 km/h (3 Bft) 100,00 %
07.08.2020 11:10 31,8 C 37,2 C 30,0 C 47 % 1020,5 hPa 0,0 l/m 2 min 0 min 724 W/m 9,7 km/h (2 Bft) 100,00 %
07.08.2020 11:08 31,7 C 36,7 C 30,0 C 46 % 1020,5 hPa 0,0 l/m 2 min 0 min 720 W/m 6,4 km/h (2 Bft) 100,00 %
07.08.2020 11:06 31,6 C 36,1 C 30,6 C 46 % 1020,5 hPa 0,0 l/m 2 min 0 min 716 W/m 12,9 km/h (3 Bft) 97,83 %
07.08.2020 11:04 31,5 C 36,7 C 30,6 C 46 % 1020,5 hPa 0,0 l/m 2 min 0 min 711 W/m 12,9 km/h (3 Bft) 100,00 %
07.08.2020 11:02 31,4 C 37,2 C 31,1 C 48 % 1020,6 hPa 0,0 l/m 2 min 0 min 707 W/m 12,9 km/h (3 Bft) 100,00 %
07.08.2020 11:00 31,3 C 37,2 C 31,7 C 48 % 1020,5 hPa 0,0 l/m 4 min 0 min 700 W/m 6,4 km/h (2 Bft) 98,10 %
07.08.2020 10:56 31,2 C 36,7 C 33,3 C 50 % 1020,6 hPa 0,0 l/m 2 min 0 min 693 W/m 6,4 km/h (2 Bft) 100,00 %
07.08.2020 10:54 31,1 C 36,1 C 34,4 C 49 % 1020,6 hPa 0,0 l/m 2 min 0 min 689 W/m 6,4 km/h (2 Bft) 100,00 %
07.08.2020 10:52 30,9 C 35,0 C 35,6 C 49 % 1020,5 hPa 0,0 l/m 2 min 0 min 685 W/m 6,4 km/h (2 Bft) 100,00 %
07.08.2020 10:50 30,8 C 34,4 C 37,2 C 48 % 1020,6 hPa 0,0 l/m 2 min 0 min 679 W/m 16,1 km/h (3 Bft) 100,00 %
07.08.2020 10:48 30,7 C 35,0 C 37,8 C 48 % 1020,5 hPa 0,0 l/m 2 min 0 min 674 W/m 12,9 km/h (3 Bft) 100,00 %
07.08.2020 10:46 30,6 C 35,0 C 37,8 C 49 % 1020,6 hPa 0,0 l/m 2 min 0 min 670 W/m 12,9 km/h (3 Bft) 100,00 %
07.08.2020 10:44 30,5 C 36,1 C 38,3 C 49 % 1020,6 hPa 0,0 l/m 2 min 0 min 665 W/m 6,4 km/h (2 Bft) 100,00 %
07.08.2020 10:42 30,4 C 35,6 C 38,9 C 50 % 1020,6 hPa 0,0 l/m 2 min 0 min 661 W/m 12,9 km/h (3 Bft) 100,00 %
07.08.2020 10:40 30,3 C 36,7 C 39,4 C 50 % 1020,6 hPa 0,0 l/m 2 min 0 min 655 W/m 3,2 km/h (1 Bft) 100,00 %
07.08.2020 10:38 30,2 C 35,6 C 39,4 C 51 % 1020,6 hPa 0,0 l/m 2 min 0 min 650 W/m 6,4 km/h (2 Bft) 100,00 %
07.08.2020 10:36 30,0 C 35,0 C 38,9 C 50 % 1020,6 hPa 0,0 l/m 2 min 0 min 646 W/m 12,9 km/h (3 Bft) 100,00 %
07.08.2020 10:34 29,9 C 35,6 C 38,3 C 51 % 1020,6 hPa 0,0 l/m 2 min 0 min 641 W/m 12,9 km/h (3 Bft) 100,00 %
07.08.2020 10:32 29,8 C 35,0 C 38,9 C 51 % 1020,6 hPa 0,0 l/m 2 min 0 min 636 W/m 6,4 km/h (2 Bft) 100,00 %
07.08.2020 10:30 29,7 C 35,0 C 38,9 C 51 % 1020,6 hPa 0,0 l/m 2 min 0 min 632 W/m 6,4 km/h (2 Bft) 100,00 %
07.08.2020 10:28 29,6 C 35,0 C 38,9 C 51 % 1020,6 hPa 0,0 l/m 2 min 0 min 627 W/m 6,4 km/h (2 Bft) 97,92 %
07.08.2020 10:26 29,4 C 34,4 C 38,3 C 51 % 1020,6 hPa 0,0 l/m 2 min 0 min 621 W/m 12,9 km/h (3 Bft) 100,00 %
07.08.2020 10:24 29,3 C 34,4 C 38,3 C 53 % 1020,6 hPa 0,0 l/m 2 min 0 min 615 W/m 6,4 km/h (2 Bft) 100,00 %
07.08.2020 10:22 29,2 C 34,4 C 38,3 C 53 % 1020,6 hPa 0,0 l/m 2 min 0 min 610 W/m 6,4 km/h (2 Bft) 100,00 %
07.08.2020 10:20 29,1 C 33,3 C 37,2 C 52 % 1020,6 hPa 0,0 l/m 2 min 0 min 605 W/m 6,4 km/h (2 Bft) 100,00 %
07.08.2020 10:18 29,0 C 33,3 C 37,2 C 52 % 1020,6 hPa 0,0 l/m 2 min 0 min 600 W/m 12,9 km/h (3 Bft) 100,00 %
07.08.2020 10:16 28,9 C 33,9 C 37,8 C 52 % 1020,7 hPa 0,0 l/m 2 min 0 min 594 W/m 6,4 km/h (2 Bft) 100,00 %
07.08.2020 10:14 28,8 C 32,8 C 37,2 C 52 % 1020,7 hPa 0,0 l/m 2 min 0 min 587 W/m 12,9 km/h (3 Bft) 100,00 %
07.08.2020 10:12 28,7 C 32,8 C 36,7 C 52 % 1020,7 hPa 0,0 l/m 2 min 0 min 583 W/m 16,1 km/h (3 Bft) 100,00 %
07.08.2020 10:10 28,6 C 32,8 C 37,8 C 53 % 1020,7 hPa 0,0 l/m 2 min 0 min 578 W/m 16,1 km/h (3 Bft) 100,00 %
07.08.2020 10:08 28,5 C 33,9 C 38,3 C 54 % 1020,7 hPa 0,0 l/m 2 min 0 min 573 W/m 6,4 km/h (2 Bft) 100,00 %
07.08.2020 10:06 28,3 C 32,8 C 37,2 C 54 % 1020,6 hPa 0,0 l/m 2 min 0 min 567 W/m 6,4 km/h (2 Bft) 100,00 %
07.08.2020 10:04 28,2 C 32,2 C 36,1 C 54 % 1020,7 hPa 0,0 l/m 2 min 0 min 563 W/m 12,9 km/h (3 Bft) 100,00 %
07.08.2020 10:02 28,1 C 32,2 C 36,7 C 54 % 1020,7 hPa 0,0 l/m 2 min 0 min 557 W/m 16,1 km/h (3 Bft) 100,00 %
07.08.2020 10:00 28,0 C 32,8 C 37,8 C 55 % 1020,7 hPa 0,0 l/m 2 min 0 min 553 W/m 6,4 km/h (2 Bft) 100,00 %
07.08.2020 09:58 27,9 C 32,8 C 37,2 C 54 % 1020,7 hPa 0,0 l/m 2 min 0 min 546 W/m 6,4 km/h (2 Bft) 97,87 %
07.08.2020 09:56 27,8 C 32,2 C 36,7 C 54 % 1020,7 hPa 0,0 l/m 2 min 0 min 541 W/m 16,1 km/h (3 Bft) 100,00 %
07.08.2020 09:54 27,7 C 32,2 C 36,7 C 54 % 1020,7 hPa 0,0 l/m 2 min 0 min 535 W/m 12,9 km/h (3 Bft) 100,00 %
07.08.2020 09:52 27,6 C 32,2 C 37,2 C 55 % 1020,7 hPa 0,0 l/m 2 min 0 min 530 W/m 12,9 km/h (3 Bft) 100,00 %
07.08.2020 09:50 27,4 C 32,2 C 36,7 C 56 % 1020,7 hPa 0,0 l/m 2 min 0 min 525 W/m 12,9 km/h (3 Bft) 95,92 %
07.08.2020 09:48 27,3 C 32,2 C 36,7 C 56 % 1020,7 hPa 0,0 l/m 2 min 0 min 519 W/m 12,9 km/h (3 Bft) 97,87 %
07.08.2020 09:46 27,2 C 32,2 C 36,7 C 57 % 1020,7 hPa 0,0 l/m 2 min 0 min 514 W/m 6,4 km/h (2 Bft) 97,87 %
07.08.2020 09:44 27,1 C 31,7 C 36,1 C 56 % 1020,7 hPa 0,0 l/m 2 min 0 min 508 W/m 12,9 km/h (3 Bft) 93,62 %
07.08.2020 09:42 27,0 C 31,1 C 35,0 C 56 % 1020,6 hPa 0,0 l/m 2 min 0 min 502 W/m 16,1 km/h (3 Bft) 93,62 %
07.08.2020 09:40 26,8 C 31,7 C 35,6 C 57 % 1020,6 hPa 0,0 l/m 2 min 0 min 496 W/m 12,9 km/h (3 Bft) 97,30 %
07.08.2020 09:38 26,7 C 32,2 C 37,2 C 57 % 1020,6 hPa 0,0 l/m 2 min 0 min 488 W/m 3,2 km/h (1 Bft) 95,74 %
07.08.2020 09:36 26,6 C 31,7 C 36,1 C 57 % 1020,7 hPa 0,0 l/m 2 min 0 min 484 W/m 12,9 km/h (3 Bft) 93,75 %
07.08.2020 09:34 26,5 C 31,7 C 36,7 C 59 % 1020,6 hPa 0,0 l/m 2 min 0 min 478 W/m 6,4 km/h (2 Bft) 95,74 %
07.08.2020 09:32 26,4 C 31,1 C 35,0 C 58 % 1020,7 hPa 0,0 l/m 2 min 0 min 474 W/m 12,9 km/h (3 Bft) 95,83 %
07.08.2020 09:30 26,2 C 30,0 C 34,4 C 58 % 1020,6 hPa 0,0 l/m 2 min 0 min 467 W/m 12,9 km/h (3 Bft) 93,75 %
07.08.2020 09:28 26,1 C 30,0 C 33,9 C 58 % 1020,7 hPa 0,0 l/m 2 min 0 min 461 W/m 12,9 km/h (3 Bft) 96,23 %
07.08.2020 09:26 25,9 C 30,6 C 33,9 C 59 % 1020,7 hPa 0,0 l/m 2 min 0 min 456 W/m 6,4 km/h (2 Bft) 95,74 %
07.08.2020 09:24 25,8 C 29,4 C 33,3 C 59 % 1020,7 hPa 0,0 l/m 2 min 0 min 451 W/m 9,7 km/h (2 Bft) 95,74 %
07.08.2020 09:22 25,7 C 29,4 C 33,9 C 59 % 1020,6 hPa 0,0 l/m 2 min 0 min 443 W/m 12,9 km/h (3 Bft) 93,62 %
07.08.2020 09:20 25,5 C 30,0 C 34,4 C 60 % 1020,6 hPa 0,0 l/m 2 min 0 min 438 W/m 12,9 km/h (3 Bft) 95,65 %
07.08.2020 09:18 25,3 C 30,0 C 34,4 C 60 % 1020,6 hPa 0,0 l/m 2 min 0 min 429 W/m 12,9 km/h (3 Bft) 95,74 %
07.08.2020 09:16 25,2 C 29,4 C 33,3 C 60 % 1020,6 hPa 0,0 l/m 2 min 0 min 425 W/m 12,9 km/h (3 Bft) 93,62 %
07.08.2020 09:14 25,0 C 30,0 C 32,2 C 61 % 1020,7 hPa 0,0 l/m 2 min 0 min 419 W/m 12,9 km/h (3 Bft) 95,74 %
07.08.2020 09:12 24,8 C 29,4 C 30,6 C 61 % 1020,7 hPa 0,0 l/m 2 min 0 min 413 W/m 12,9 km/h (3 Bft) 91,49 %
07.08.2020 09:10 24,6 C 28,9 C 27,8 C 61 % 1020,6 hPa 0,0 l/m 2 min 0 min 407 W/m 12,9 km/h (3 Bft) 93,62 %
07.08.2020 09:08 24,4 C 29,4 C 25,0 C 62 % 1020,6 hPa 0,0 l/m 2 min 0 min 401 W/m 12,9 km/h (3 Bft) 93,48 %
07.08.2020 09:06 24,2 C 29,4 C 23,3 C 62 % 1020,6 hPa 0,0 l/m 2 min 0 min 395 W/m 12,9 km/h (3 Bft) 95,74 %
07.08.2020 09:04 24,1 C 29,4 C 22,8 C 63 % 1020,7 hPa 0,0 l/m 2 min 0 min 389 W/m 16,1 km/h (3 Bft) 97,87 %
07.08.2020 09:02 23,8 C 29,4 C 22,8 C 64 % 1020,6 hPa 0,0 l/m 2 min 0 min 382 W/m 6,4 km/h (2 Bft) 95,74 %
07.08.2020 09:00 23,7 C 28,9 C 22,2 C 63 % 1020,6 hPa 0,0 l/m 2 min 0 min 375 W/m 12,9 km/h (3 Bft) 95,74 %
07.08.2020 08:58 23,4 C 28,9 C 22,2 C 64 % 1020,7 hPa 0,0 l/m 2 min 0 min 365 W/m 12,9 km/h (3 Bft) 91,30 %
07.08.2020 08:56 23,2 C 28,9 C 21,7 C 64 % 1020,6 hPa 0,0 l/m 2 min 0 min 351 W/m 12,9 km/h (3 Bft) 95,74 %
07.08.2020 08:54 23,1 C 28,3 C 21,7 C 64 % 1020,6 hPa 0,0 l/m 2 min 0 min 333 W/m 12,9 km/h (3 Bft) 95,74 %
07.08.2020 08:52 22,8 C 27,8 C 21,7 C 65 % 1020,6 hPa 0,0 l/m 2 min 0 min 311 W/m 12,9 km/h (3 Bft) 95,74 %
07.08.2020 08:50 22,6 C 28,3 C 21,7 C 65 % 1020,6 hPa 0,0 l/m 2 min 0 min 282 W/m 16,1 km/h (3 Bft) 95,74 %
07.08.2020 08:48 22,4 C 28,3 C 21,1 C 66 % 1020,6 hPa 0,0 l/m 2 min 0 min 259 W/m 6,4 km/h (2 Bft) 95,74 %
07.08.2020 08:46 22,3 C 27,8 C 21,1 C 66 % 1020,6 hPa 0,0 l/m 2 min 0 min 228 W/m 6,4 km/h (2 Bft) 95,65 %
07.08.2020 08:44 22,2 C 27,2 C 21,1 C 66 % 1020,6 hPa 0,0 l/m 2 min 0 min 195 W/m 12,9 km/h (3 Bft) 95,83 %
07.08.2020 08:42 22,1 C 26,7 C 21,1 C 66 % 1020,6 hPa 0,0 l/m 0 min 0 min 162 W/m 6,4 km/h (2 Bft) 95,74 %
07.08.2020 08:40 21,9 C 26,1 C 21,1 C 66 % 1020,6 hPa 0,0 l/m 0 min 0 min 135 W/m 12,9 km/h (3 Bft) 95,74 %
07.08.2020 08:38 21,8 C 26,1 C 21,1 C 66 % 1020,6 hPa 0,0 l/m 0 min 0 min 112 W/m 12,9 km/h (3 Bft) 95,74 %
07.08.2020 08:36 21,7 C 25,0 C 21,1 C 66 % 1020,6 hPa 0,0 l/m 0 min 0 min 90 W/m 12,9 km/h (3 Bft) 95,74 %
07.08.2020 08:34 21,6 C 23,3 C 20,6 C 67 % 1020,6 hPa 0,0 l/m 0 min 0 min 73 W/m 12,9 km/h (3 Bft) 97,83 %
07.08.2020 08:32 21,5 C 22,2 C 20,6 C 67 % 1020,6 hPa 0,0 l/m 0 min 0 min 58 W/m 12,9 km/h (3 Bft) 95,74 %
07.08.2020 08:30 21,4 C 21,7 C 20,6 C 67 % 1020,6 hPa 0,0 l/m 0 min 0 min 48 W/m 12,9 km/h (3 Bft) 95,74 %
07.08.2020 08:28 21,3 C 21,7 C 20,6 C 67 % 1020,6 hPa 0,0 l/m 0 min 0 min 44 W/m 16,1 km/h (3 Bft) 95,83 %
07.08.2020 08:26 21,2 C 21,7 C 20,6 C 67 % 1020,6 hPa 0,0 l/m 0 min 0 min 43 W/m 12,9 km/h (3 Bft) 95,74 %
07.08.2020 08:24 21,1 C 21,7 C 20,6 C 68 % 1020,6 hPa 0,0 l/m 0 min 0 min 42 W/m 12,9 km/h (3 Bft) 97,83 %
07.08.2020 08:22 21,1 C 21,7 C 20,6 C 68 % 1020,6 hPa 0,0 l/m 0 min 0 min 41 W/m 6,4 km/h (2 Bft) 97,87 %
07.08.2020 08:20 21,0 C 21,1 C 20,6 C 68 % 1020,6 hPa 0,0 l/m 0 min 0 min 40 W/m 12,9 km/h (3 Bft) 97,87 %
07.08.2020 08:18 20,9 C 21,1 C 20,0 C 68 % 1020,6 hPa 0,0 l/m 0 min 0 min 39 W/m 12,9 km/h (3 Bft) 97,87 %
07.08.2020 08:16 20,8 C 21,1 C 20,0 C 69 % 1020,5 hPa 0,0 l/m 0 min 0 min 39 W/m 12,9 km/h (3 Bft) 97,92 %
07.08.2020 08:14 20,7 C 21,1 C 20,0 C 69 % 1020,5 hPa 0,0 l/m 0 min 0 min 39 W/m 12,9 km/h (3 Bft) 97,87 %
07.08.2020 08:12 20,7 C 21,1 C 20,0 C 69 % 1020,5 hPa 0,0 l/m 0 min 0 min 37 W/m 6,4 km/h (2 Bft) 100,00 %
07.08.2020 08:10 20,6 C 21,1 C 20,0 C 69 % 1020,5 hPa 0,0 l/m 0 min 0 min 36 W/m 12,9 km/h (3 Bft) 100,00 %
07.08.2020 08:08 20,5 C 20,6 C 20,0 C 69 % 1020,5 hPa 0,0 l/m 0 min 0 min 35 W/m 16,1 km/h (3 Bft) 97,92 %
07.08.2020 08:06 20,4 C 20,6 C 19,4 C 69 % 1020,5 hPa 0,0 l/m 0 min 0 min 34 W/m 12,9 km/h (3 Bft) 100,00 %
07.08.2020 08:04 20,4 C 20,6 C 19,4 C 70 % 1020,5 hPa 0,0 l/m 0 min 0 min 33 W/m 9,7 km/h (2 Bft) 100,00 %
07.08.2020 08:02 20,3 C 20,6 C 19,4 C 70 % 1020,4 hPa 0,0 l/m 0 min 0 min 32 W/m 9,7 km/h (2 Bft) 97,87 %
07.08.2020 08:00 20,3 C 20,6 C 19,4 C 70 % 1020,5 hPa 0,0 l/m 0 min 0 min 32 W/m 12,9 km/h (3 Bft) 100,00 %
07.08.2020 07:58 20,2 C 20,6 C 18,9 C 70 % 1020,5 hPa 0,0 l/m 0 min 0 min 30 W/m 9,7 km/h (2 Bft) 100,00 %
07.08.2020 07:56 20,1 C 20,6 C 18,9 C 70 % 1020,5 hPa 0,0 l/m 0 min 0 min 30 W/m 12,9 km/h (3 Bft) 100,00 %
07.08.2020 07:54 20,1 C 20,0 C 18,9 C 70 % 1020,5 hPa 0,0 l/m 0 min 0 min 29 W/m 16,1 km/h (3 Bft) 100,00 %
07.08.2020 07:52 20,1 C 20,0 C 18,9 C 71 % 1020,5 hPa 0,0 l/m 0 min 0 min 28 W/m 6,4 km/h (2 Bft) 97,87 %
07.08.2020 07:50 20,0 C 20,0 C 18,9 C 70 % 1020,5 hPa 0,0 l/m 0 min 0 min 28 W/m 3,2 km/h (1 Bft) 100,00 %
07.08.2020 07:48 20,0 C 20,0 C 18,9 C 71 % 1020,5 hPa 0,0 l/m 0 min 0 min 27 W/m 6,4 km/h (2 Bft) 100,00 %
07.08.2020 07:46 19,9 C 20,0 C 18,9 C 71 % 1020,4 hPa 0,0 l/m 0 min 0 min 26 W/m 6,4 km/h (2 Bft) 100,00 %
07.08.2020 07:44 19,9 C 20,0 C 18,9 C 71 % 1020,5 hPa 0,0 l/m 0 min 0 min 26 W/m 3,2 km/h (1 Bft) 100,00 %
07.08.2020 07:42 19,9 C 19,4 C 18,9 C 71 % 1020,5 hPa 0,0 l/m 0 min 0 min 25 W/m 6,4 km/h (2 Bft) 100,00 %
07.08.2020 07:40 19,9 C 19,4 C 18,9 C 71 % 1020,5 hPa 0,0 l/m 0 min 0 min 25 W/m 3,2 km/h (1 Bft) 97,87 %
07.08.2020 07:38 19,8 C 19,4 C 18,9 C 71 % 1020,5 hPa 0,0 l/m 0 min 0 min 25 W/m 6,4 km/h (2 Bft) 100,00 %
07.08.2020 07:36 19,8 C 19,4 C 18,9 C 71 % 1020,5 hPa 0,0 l/m 0 min 0 min 25 W/m 3,2 km/h (1 Bft) 100,00 %
07.08.2020 07:34 19,8 C 19,4 C 18,9 C 71 % 1020,4 hPa 0,0 l/m 0 min 0 min 23 W/m 6,4 km/h (2 Bft) 100,00 %
07.08.2020 07:32 19,8 C 19,4 C 18,9 C 71 % 1020,4 hPa 0,0 l/m 0 min 0 min 23 W/m 6,4 km/h (2 Bft) 100,00 %
07.08.2020 07:30 19,7 C 19,4 C 18,9 C 71 % 1020,4 hPa 0,0 l/m 0 min 0 min 23 W/m 12,9 km/h (3 Bft) 100,00 %
07.08.2020 07:28 19,7 C 19,4 C 18,3 C 71 % 1020,4 hPa 0,0 l/m 0 min 0 min 21 W/m 12,9 km/h (3 Bft) 97,87 %
07.08.2020 07:26 19,7 C 19,4 C 18,3 C 71 % 1020,4 hPa 0,0 l/m 0 min 0 min 21 W/m 6,4 km/h (2 Bft) 93,62 %
07.08.2020 07:24 19,7 C 19,4 C 18,3 C 71 % 1020,3 hPa 0,0 l/m 0 min 0 min 21 W/m 6,4 km/h (2 Bft) 100,00 %
07.08.2020 07:22 19,6 C 18,9 C 18,3 C 71 % 1020,3 hPa 0,0 l/m 0 min 0 min 21 W/m 12,9 km/h (3 Bft) 100,00 %
07.08.2020 07:20 19,6 C 18,9 C 18,3 C 71 % 1020,3 hPa 0,0 l/m 0 min 0 min 20 W/m 16,1 km/h (3 Bft) 100,00 %
07.08.2020 07:18 19,6 C 18,9 C 18,3 C 71 % 1020,3 hPa 0,0 l/m 0 min 0 min 19 W/m 6,4 km/h (2 Bft) 97,87 %
07.08.2020 07:16 19,6 C 18,9 C 18,3 C 71 % 1020,3 hPa 0,0 l/m 0 min 0 min 19 W/m 6,4 km/h (2 Bft) 95,74 %
07.08.2020 07:14 19,6 C 18,9 C 18,3 C 71 % 1020,2 hPa 0,0 l/m 0 min 0 min 19 W/m 12,9 km/h (3 Bft) 95,74 %
07.08.2020 07:12 19,6 C 18,9 C 18,3 C 71 % 1020,3 hPa 0,0 l/m 0 min 0 min 19 W/m 6,4 km/h (2 Bft) 93,62 %
07.08.2020 07:10 19,6 C 18,9 C 18,3 C 71 % 1020,3 hPa 0,0 l/m 0 min 0 min 18 W/m 6,4 km/h (2 Bft) 97,83 %
07.08.2020 07:08 19,5 C 18,9 C 18,3 C 71 % 1020,2 hPa 0,0 l/m 0 min 0 min 18 W/m 6,4 km/h (2 Bft) 97,87 %
07.08.2020 07:06 19,5 C 18,9 C 18,3 C 71 % 1020,2 hPa 0,0 l/m 0 min 0 min 18 W/m 12,9 km/h (3 Bft) 97,87 %
07.08.2020 07:04 19,5 C 18,9 C 18,3 C 71 % 1020,2 hPa 0,0 l/m 0 min 0 min 16 W/m 12,9 km/h (3 Bft) 97,87 %
07.08.2020 07:02 19,5 C 18,9 C 18,3 C 71 % 1020,2 hPa 0,0 l/m 0 min 0 min 16 W/m 6,4 km/h (2 Bft) 97,92 %
07.08.2020 07:00 19,5 C 18,9 C 18,3 C 71 % 1020,2 hPa 0,0 l/m 0 min 0 min 16 W/m 12,9 km/h (3 Bft) 97,87 %
07.08.2020 06:58 19,5 C 18,9 C 18,3 C 71 % 1020,1 hPa 0,0 l/m 0 min 0 min 16 W/m 6,4 km/h (2 Bft) 97,83 %
07.08.2020 06:56 19,5 C 18,9 C 17,8 C 71 % 1020,1 hPa 0,0 l/m 0 min 0 min 14 W/m 6,4 km/h (2 Bft) 93,62 %
07.08.2020 06:54 19,5 C 18,9 C 18,3 C 71 % 1020,1 hPa 0,0 l/m 0 min 0 min 14 W/m 3,2 km/h (1 Bft) 97,87 %
07.08.2020 06:52 19,4 C 18,9 C 18,3 C 71 % 1020,1 hPa 0,0 l/m 0 min 0 min 14 W/m 3,2 km/h (1 Bft) 97,87 %
07.08.2020 06:50 19,4 C 18,9 C 18,3 C 71 % 1020,1 hPa 0,0 l/m 0 min 0 min 13 W/m 6,4 km/h (2 Bft) 97,87 %
07.08.2020 06:48 19,4 C 18,9 C 18,3 C 71 % 1020,1 hPa 0,0 l/m 0 min 0 min 12 W/m 6,4 km/h (2 Bft) 97,87 %
07.08.2020 06:46 19,4 C 18,9 C 18,3 C 72 % 1020,1 hPa 0,0 l/m 0 min 0 min 12 W/m 12,9 km/h (3 Bft) 97,83 %
07.08.2020 06:44 19,4 C 18,9 C 18,3 C 72 % 1020,1 hPa 0,0 l/m 0 min 0 min 12 W/m 6,4 km/h (2 Bft) 97,87 %
07.08.2020 06:42 19,4 C 18,3 C 17,8 C 72 % 1020,0 hPa 0,0 l/m 0 min 0 min 12 W/m 12,9 km/h (3 Bft) 97,87 %
07.08.2020 06:40 19,4 C 18,3 C 17,8 C 72 % 1020,0 hPa 0,0 l/m 0 min 0 min 11 W/m 12,9 km/h (3 Bft) 95,74 %
07.08.2020 06:38 19,4 C 18,3 C 17,8 C 72 % 1020,0 hPa 0,0 l/m 0 min 0 min 11 W/m 6,4 km/h (2 Bft) 93,62 %
07.08.2020 06:36 19,4 C 18,3 C 17,8 C 72 % 1020,0 hPa 0,0 l/m 0 min 0 min 11 W/m 6,4 km/h (2 Bft) 93,62 %
07.08.2020 06:34 19,4 C 18,3 C 17,8 C 72 % 1020,0 hPa 0,0 l/m 0 min 0 min 9 W/m 6,4 km/h (2 Bft) 95,65 %
07.08.2020 06:32 19,4 C 18,3 C 17,8 C 72 % 1019,9 hPa 0,0 l/m 0 min 0 min 9 W/m 12,9 km/h (3 Bft) 95,83 %
07.08.2020 06:30 19,4 C 18,3 C 17,8 C 72 % 1020,0 hPa 0,0 l/m 0 min 0 min 9 W/m 12,9 km/h (3 Bft) 97,87 %
07.08.2020 06:28 19,4 C 18,3 C 17,8 C 72 % 1019,9 hPa 0,0 l/m 0 min 0 min 7 W/m 6,4 km/h (2 Bft) 97,87 %
07.08.2020 06:26 19,4 C 18,3 C 17,8 C 72 % 1019,9 hPa 0,0 l/m 0 min 0 min 7 W/m 12,9 km/h (3 Bft) 97,87 %
07.08.2020 06:24 19,4 C 18,3 C 17,8 C 72 % 1019,9 hPa 0,0 l/m 0 min 0 min 7 W/m 12,9 km/h (3 Bft) 93,48 %
07.08.2020 06:22 19,4 C 18,3 C 17,8 C 72 % 1019,9 hPa 0,0 l/m 0 min 0 min 6 W/m 6,4 km/h (2 Bft) 97,87 %
07.08.2020 06:20 19,4 C 18,3 C 17,8 C 72 % 1019,9 hPa 0,0 l/m 0 min 0 min 5 W/m 12,9 km/h (3 Bft) 97,87 %
07.08.2020 06:18 19,4 C 18,3 C 17,8 C 72 % 1019,9 hPa 0,0 l/m 0 min 0 min 5 W/m 12,9 km/h (3 Bft) 97,87 %
07.08.2020 06:16 19,4 C 18,3 C 17,8 C 72 % 1019,9 hPa 0,0 l/m 0 min 0 min 5 W/m 6,4 km/h (2 Bft) 97,87 %
07.08.2020 06:14 19,4 C 18,3 C 17,8 C 72 % 1019,8 hPa 0,0 l/m 0 min 0 min 1 W/m 12,9 km/h (3 Bft) 97,87 %
07.08.2020 06:12 19,4 C 18,3 C 17,8 C 73 % 1019,9 hPa 0,0 l/m 0 min 0 min 0 W/m 16,1 km/h (3 Bft) 97,83 %
07.08.2020 06:10 19,4 C 18,3 C 17,8 C 73 % 1019,9 hPa 0,0 l/m 0 min 0 min 0 W/m 6,4 km/h (2 Bft) 97,87 %
07.08.2020 06:08 19,4 C 18,3 C 17,8 C 73 % 1019,8 hPa 0,0 l/m 0 min 0 min 0 W/m 12,9 km/h (3 Bft) 96,81 %
07.08.2020 06:04 19,4 C 18,3 C 17,8 C 73 % 1019,8 hPa 0,0 l/m 0 min 0 min 0 W/m 6,4 km/h (2 Bft) 95,83 %
07.08.2020 06:02 19,4 C 18,3 C 17,8 C 73 % 1019,8 hPa 0,0 l/m 0 min 0 min 0 W/m 6,4 km/h (2 Bft) 97,96 %
07.08.2020 06:00 19,4 C 18,3 C 17,8 C 73 % 1019,8 hPa 0,0 l/m 0 min 0 min 0 W/m 6,4 km/h (2 Bft) 97,87 %
07.08.2020 05:58 19,4 C 18,3 C 17,8 C 73 % 1019,8 hPa 0,0 l/m 0 min 0 min 0 W/m 6,4 km/h (2 Bft) 95,74 %
07.08.2020 05:56 19,3 C 18,3 C 17,8 C 73 % 1019,8 hPa 0,0 l/m 0 min 0 min 0 W/m 6,4 km/h (2 Bft) 95,74 %
07.08.2020 05:54 19,3 C 18,3 C 17,8 C 73 % 1019,8 hPa 0,0 l/m 0 min 0 min 0 W/m 3,2 km/h (1 Bft) 95,74 %
07.08.2020 05:52 19,3 C 18,3 C 17,8 C 73 % 1019,8 hPa 0,0 l/m 0 min 0 min 0 W/m 6,4 km/h (2 Bft) 100,00 %
07.08.2020 05:50 19,3 C 18,3 C 17,8 C 73 % 1019,8 hPa 0,0 l/m 0 min 0 min 0 W/m 6,4 km/h (2 Bft) 100,00 %
07.08.2020 05:48 19,3 C 18,3 C 17,8 C 73 % 1019,8 hPa 0,0 l/m 0 min 0 min 0 W/m 6,4 km/h (2 Bft) 97,87 %
07.08.2020 05:46 19,3 C 18,3 C 17,8 C 73 % 1019,8 hPa 0,0 l/m 0 min 0 min 0 W/m 12,9 km/h (3 Bft) 97,87 %
07.08.2020 05:44 19,3 C 18,3 C 17,8 C 73 % 1019,7 hPa 0,0 l/m 0 min 0 min 0 W/m 12,9 km/h (3 Bft) 93,62 %
07.08.2020 05:42 19,3 C 18,3 C 17,8 C 73 % 1019,8 hPa 0,0 l/m 0 min 0 min 0 W/m 6,4 km/h (2 Bft) 100,00 %
07.08.2020 05:40 19,2 C 18,3 C 17,8 C 74 % 1019,8 hPa 0,0 l/m 0 min 0 min 0 W/m 12,9 km/h (3 Bft) 97,83 %
07.08.2020 05:38 19,2 C 18,3 C 17,8 C 74 % 1019,8 hPa 0,0 l/m 0 min 0 min 0 W/m 12,9 km/h (3 Bft) 97,87 %
07.08.2020 05:36 19,2 C 18,3 C 17,2 C 74 % 1019,8 hPa 0,0 l/m 0 min 0 min 0 W/m 6,4 km/h (2 Bft) 97,87 %
07.08.2020 05:34 19,2 C 18,3 C 17,2 C 74 % 1019,7 hPa 0,0 l/m 0 min 0 min 0 W/m 6,4 km/h (2 Bft) 97,87 %
07.08.2020 05:32 19,1 C 18,3 C 17,2 C 74 % 1019,7 hPa 0,0 l/m 0 min 0 min 0 W/m 6,4 km/h (2 Bft) 97,96 %
07.08.2020 05:30 19,1 C 18,3 C 17,8 C 74 % 1019,7 hPa 0,0 l/m 0 min 0 min 0 W/m 3,2 km/h (1 Bft) 97,87 %
07.08.2020 05:28 19,1 C 18,3 C 17,2 C 74 % 1019,7 hPa 0,0 l/m 0 min 0 min 0 W/m 3,2 km/h (1 Bft) 97,87 %
07.08.2020 05:26 19,1 C 18,3 C 17,8 C 75 % 1019,8 hPa 0,0 l/m 0 min 0 min 0 W/m 3,2 km/h (1 Bft) 97,87 %
07.08.2020 05:24 19,1 C 18,3 C 17,8 C 75 % 1019,7 hPa 0,0 l/m 0 min 0 min 0 W/m 3,2 km/h (1 Bft) 97,87 %
07.08.2020 05:22 19,0 C 18,3 C 17,8 C 75 % 1019,7 hPa 0,0 l/m 0 min 0 min 0 W/m 3,2 km/h (1 Bft) 97,56 %
07.08.2020 05:20 18,9 C 18,3 C 17,8 C 75 % 1019,6 hPa 0,0 l/m 0 min 0 min 0 W/m 3,2 km/h (1 Bft) 97,87 %
07.08.2020 05:18 18,9 C 18,9 C 18,3 C 75 % 1019,6 hPa 0,0 l/m 0 min 0 min 0 W/m 6,4 km/h (2 Bft) 97,87 %
07.08.2020 05:16 18,9 C 18,9 C 18,3 C 75 % 1019,6 hPa 0,0 l/m 0 min 0 min 0 W/m 12,9 km/h (3 Bft) 97,87 %
07.08.2020 05:14 18,8 C 18,9 C 17,8 C 75 % 1019,6 hPa 0,0 l/m 0 min 0 min 0 W/m 6,4 km/h (2 Bft) 93,48 %
07.08.2020 05:12 18,7 C 18,9 C 17,8 C 76 % 1019,6 hPa 0,0 l/m 0 min 0 min 0 W/m 12,9 km/h (3 Bft) 95,74 %
07.08.2020 05:10 18,7 C 18,9 C 17,8 C 76 % 1019,6 hPa 0,0 l/m 0 min 0 min 0 W/m 6,4 km/h (2 Bft) 97,87 %
07.08.2020 05:08 18,6 C 18,3 C 17,8 C 76 % 1019,6 hPa 0,0 l/m 0 min 0 min 0 W/m 12,9 km/h (3 Bft) 97,87 %
07.08.2020 05:06 18,5 C 18,3 C 17,2 C 76 % 1019,6 hPa 0,0 l/m 0 min 0 min 0 W/m 6,4 km/h (2 Bft) 97,87 %
07.08.2020 05:04 18,4 C 18,3 C 17,2 C 76 % 1019,6 hPa 0,0 l/m 0 min 0 min 0 W/m 6,4 km/h (2 Bft) 95,74 %
07.08.2020 05:02 18,4 C 18,3 C 17,2 C 77 % 1019,6 hPa 0,0 l/m 0 min 0 min 0 W/m 3,2 km/h (1 Bft) 97,96 %
07.08.2020 05:00 18,4 C 18,3 C 17,2 C 77 % 1019,6 hPa 0,0 l/m 0 min 0 min 0 W/m 6,4 km/h (2 Bft) 93,75 %
07.08.2020 04:58 18,3 C 18,3 C 17,2 C 77 % 1019,6 hPa 0,0 l/m 0 min 0 min 0 W/m 3,2 km/h (1 Bft) 97,87 %
07.08.2020 04:56 18,3 C 18,3 C 17,2 C 77 % 1019,6 hPa 0,0 l/m 0 min 0 min 0 W/m 3,2 km/h (1 Bft) 97,87 %
07.08.2020 04:54 18,2 C 18,9 C 17,2 C 77 % 1019,6 hPa 0,0 l/m 0 min 0 min 0 W/m 6,4 km/h (2 Bft) 97,83 %
07.08.2020 04:52 18,2 C 18,3 C 17,2 C 77 % 1019,6 hPa 0,0 l/m 0 min 0 min 0 W/m 6,4 km/h (2 Bft) 95,83 %
07.08.2020 04:50 18,2 C 18,3 C 16,7 C 78 % 1019,6 hPa 0,0 l/m 0 min 0 min 0 W/m 3,2 km/h (1 Bft) 97,87 %
07.08.2020 04:48 18,1 C 18,3 C 16,7 C 77 % 1019,5 hPa 0,0 l/m 0 min 0 min 0 W/m 6,4 km/h (2 Bft) 97,87 %
07.08.2020 04:46 18,1 C 18,3 C 16,7 C 78 % 1019,5 hPa 0,0 l/m 0 min 0 min 0 W/m 6,4 km/h (2 Bft) 95,74 %
07.08.2020 04:44 18,1 C 18,3 C 16,1 C 78 % 1019,5 hPa 0,0 l/m 0 min 0 min 0 W/m 6,4 km/h (2 Bft) 95,74 %
07.08.2020 04:42 18,1 C 17,8 C 16,1 C 78 % 1019,6 hPa 0,0 l/m 0 min 0 min 0 W/m 6,4 km/h (2 Bft) 100,00 %
07.08.2020 04:40 18,1 C 17,8 C 16,1 C 78 % 1019,5 hPa 0,0 l/m 0 min 0 min 0 W/m 3,2 km/h (1 Bft) 100,00 %
07.08.2020 04:38 18,1 C 17,8 C 16,1 C 78 % 1019,5 hPa 0,0 l/m 0 min 0 min 0 W/m 3,2 km/h (1 Bft) 100,00 %
07.08.2020 04:36 18,1 C 17,8 C 16,1 C 78 % 1019,5 hPa 0,0 l/m 0 min 0 min 0 W/m 3,2 km/h (1 Bft) 97,87 %
07.08.2020 04:34 18,1 C 17,2 C 16,1 C 78 % 1019,5 hPa 0,0 l/m 0 min 0 min 0 W/m 3,2 km/h (1 Bft) 100,00 %
07.08.2020 04:32 18,1 C 17,2 C 16,1 C 78 % 1019,5 hPa 0,0 l/m 0 min 0 min 0 W/m 3,2 km/h (1 Bft) 97,87 %
07.08.2020 04:30 18,1 C 17,2 C 16,1 C 78 % 1019,5 hPa 0,0 l/m 0 min 0 min 0 W/m 3,2 km/h (1 Bft) 97,83 %
07.08.2020 04:28 18,1 C 16,7 C 16,1 C 78 % 1019,5 hPa 0,0 l/m 0 min 0 min 0 W/m 0,0 km/h (0 Bft) 97,87 %
07.08.2020 04:26 18,1 C 16,7 C 16,1 C 78 % 1019,5 hPa 0,0 l/m 0 min 0 min 0 W/m 0,0 km/h (0 Bft) 95,74 %
07.08.2020 04:24 18,1 C 17,2 C 16,1 C 78 % 1019,5 hPa 0,0 l/m 0 min 0 min 0 W/m 0,0 km/h (0 Bft) 97,87 %
07.08.2020 04:22 18,1 C 17,2 C 16,1 C 78 % 1019,5 hPa 0,0 l/m 0 min 0 min 0 W/m 0,0 km/h (0 Bft) 95,74 %
07.08.2020 04:20 18,1 C 17,2 C 16,1 C 78 % 1019,5 hPa 0,0 l/m 0 min 0 min 0 W/m 0,0 km/h (0 Bft) 97,83 %
07.08.2020 04:18 18,1 C 17,2 C 16,1 C 78 % 1019,4 hPa 0,0 l/m 0 min 0 min 0 W/m 0,0 km/h (0 Bft) 97,87 %
07.08.2020 04:16 18,2 C 17,2 C 16,1 C 78 % 1019,4 hPa 0,0 l/m 0 min 0 min 0 W/m 3,2 km/h (1 Bft) 95,74 %
07.08.2020 04:14 18,2 C 16,7 C 16,1 C 78 % 1019,5 hPa 0,0 l/m 0 min 0 min 0 W/m 3,2 km/h (1 Bft) 97,87 %
07.08.2020 04:12 18,2 C 16,7 C 16,1 C 78 % 1019,5 hPa 0,0 l/m 0 min 0 min 0 W/m 3,2 km/h (1 Bft) 95,83 %
07.08.2020 04:10 18,2 C 16,7 C 16,1 C 78 % 1019,5 hPa 0,0 l/m 0 min 0 min 0 W/m 0,0 km/h (0 Bft) 95,74 %
07.08.2020 04:08 18,2 C 16,7 C 16,1 C 78 % 1019,5 hPa 0,0 l/m 0 min 0 min 0 W/m 0,0 km/h (0 Bft) 92,68 %
07.08.2020 04:06 18,2 C 16,7 C 16,1 C 78 % 1019,6 hPa 0,0 l/m 0 min 0 min 0 W/m 0,0 km/h (0 Bft) 95,74 %
07.08.2020 04:04 18,2 C 16,7 C 16,1 C 78 % 1019,6 hPa 0,0 l/m 0 min 0 min 0 W/m 3,2 km/h (1 Bft) 93,88 %
07.08.2020 04:02 18,2 C 16,7 C 16,1 C 78 % 1019,6 hPa 0,0 l/m 0 min 0 min 0 W/m 0,0 km/h (0 Bft) 100,00 %
07.08.2020 04:00 18,2 C 16,7 C 16,1 C 78 % 1019,5 hPa 0,0 l/m 0 min 0 min 0 W/m 3,2 km/h (1 Bft) 93,62 %
07.08.2020 03:58 18,2 C 16,7 C 16,1 C 78 % 1019,5 hPa 0,0 l/m 0 min 0 min 0 W/m 0,0 km/h (0 Bft) 95,74 %
07.08.2020 03:56 18,2 C 16,7 C 16,1 C 78 % 1019,5 hPa 0,0 l/m 0 min 0 min 0 W/m 0,0 km/h (0 Bft) 95,74 %
07.08.2020 03:54 18,2 C 16,7 C 16,1 C 78 % 1019,5 hPa 0,0 l/m 0 min 0 min 0 W/m 0,0 km/h (0 Bft) 95,65 %
07.08.2020 03:52 18,2 C 16,7 C 16,1 C 78 % 1019,6 hPa 0,0 l/m 0 min 0 min 0 W/m 0,0 km/h (0 Bft) 95,74 %
07.08.2020 03:50 18,2 C 16,7 C 16,1 C 78 % 1019,5 hPa 0,0 l/m 0 min 0 min 0 W/m 0,0 km/h (0 Bft) 95,74 %
07.08.2020 03:48 18,2 C 16,7 C 16,1 C 78 % 1019,5 hPa 0,0 l/m 0 min 0 min 0 W/m 0,0 km/h (0 Bft) 95,74 %
07.08.2020 03:46 18,2 C 16,7 C 16,1 C 78 % 1019,5 hPa 0,0 l/m 0 min 0 min 0 W/m 0,0 km/h (0 Bft) 95,83 %
07.08.2020 03:44 18,2 C 17,2 C 16,1 C 78 % 1019,5 hPa 0,0 l/m 0 min 0 min 0 W/m 0,0 km/h (0 Bft) 97,83 %
07.08.2020 03:42 18,2 C 17,2 C 16,1 C 78 % 1019,5 hPa 0,0 l/m 0 min 0 min 0 W/m 0,0 km/h (0 Bft) 95,83 %
07.08.2020 03:40 18,1 C 17,8 C 16,1 C 78 % 1019,5 hPa 0,0 l/m 0 min 0 min 0 W/m 0,0 km/h (0 Bft) 97,87 %
07.08.2020 03:38 18,1 C 17,8 C 16,1 C 78 % 1019,5 hPa 0,0 l/m 0 min 0 min 0 W/m 3,2 km/h (1 Bft) 95,74 %
07.08.2020 03:36 18,1 C 17,8 C 16,1 C 78 % 1019,5 hPa 0,0 l/m 0 min 0 min 0 W/m 3,2 km/h (1 Bft) 97,92 %
07.08.2020 03:34 18,1 C 17,8 C 16,1 C 78 % 1019,5 hPa 0,0 l/m 0 min 0 min 0 W/m 3,2 km/h (1 Bft) 93,48 %
07.08.2020 03:32 18,1 C 17,8 C 16,1 C 78 % 1019,5 hPa 0,0 l/m 0 min 0 min 0 W/m 3,2 km/h (1 Bft) 95,74 %
07.08.2020 03:30 18,1 C 17,8 C 16,1 C 78 % 1019,5 hPa 0,0 l/m 0 min 0 min 0 W/m 6,4 km/h (2 Bft) 95,74 %
07.08.2020 03:28 18,1 C 17,8 C 16,1 C 78 % 1019,4 hPa 0,0 l/m 0 min 0 min 0 W/m 3,2 km/h (1 Bft) 100,00 %
07.08.2020 03:26 18,1 C 17,8 C 16,1 C 78 % 1019,5 hPa 0,0 l/m 0 min 0 min 0 W/m 0,0 km/h (0 Bft) 95,83 %
07.08.2020 03:24 18,1 C 17,8 C 16,1 C 78 % 1019,5 hPa 0,0 l/m 0 min 0 min 0 W/m 6,4 km/h (2 Bft) 100,00 %
07.08.2020 03:22 18,1 C 17,8 C 16,1 C 78 % 1019,5 hPa 0,0 l/m 0 min 0 min 0 W/m 6,4 km/h (2 Bft) 100,00 %
07.08.2020 03:20 18,2 C 17,2 C 16,1 C 78 % 1019,5 hPa 0,0 l/m 0 min 0 min 0 W/m 3,2 km/h (1 Bft) 100,00 %
07.08.2020 03:18 18,2 C 17,2 C 16,1 C 78 % 1019,5 hPa 0,0 l/m 0 min 0 min 0 W/m 3,2 km/h (1 Bft) 100,00 %
07.08.2020 03:16 18,2 C 17,2 C 16,1 C 77 % 1019,5 hPa 0,0 l/m 0 min 0 min 0 W/m 6,4 km/h (2 Bft) 97,87 %
07.08.2020 03:14 18,2 C 17,2 C 16,1 C 77 % 1019,5 hPa 0,0 l/m 0 min 0 min 0 W/m 3,2 km/h (1 Bft) 97,87 %
07.08.2020 03:12 18,3 C 16,7 C 16,1 C 77 % 1019,5 hPa 0,0 l/m 0 min 0 min 0 W/m 3,2 km/h (1 Bft) 100,00 %
07.08.2020 03:10 18,3 C 16,7 C 16,1 C 77 % 1019,5 hPa 0,0 l/m 0 min 0 min 0 W/m 3,2 km/h (1 Bft) 100,00 %
07.08.2020 03:08 18,3 C 16,7 C 16,1 C 76 % 1019,5 hPa 0,0 l/m 0 min 0 min 0 W/m 0,0 km/h (0 Bft) 97,87 %
07.08.2020 03:06 18,3 C 16,7 C 16,1 C 76 % 1019,6 hPa 0,0 l/m 0 min 0 min 0 W/m 0,0 km/h (0 Bft) 100,00 %
07.08.2020 03:04 18,4 C 16,1 C 16,1 C 76 % 1019,5 hPa 0,0 l/m 0 min 0 min 0 W/m 0,0 km/h (0 Bft) 100,00 %
07.08.2020 03:02 18,4 C 16,1 C 16,1 C 75 % 1019,6 hPa 0,0 l/m 0 min 0 min 0 W/m 0,0 km/h (0 Bft) 100,00 %
07.08.2020 03:00 18,4 C 16,1 C 16,1 C 76 % 1019,5 hPa 0,0 l/m 0 min 0 min 0 W/m 0,0 km/h (0 Bft) 100,00 %
07.08.2020 02:58 18,4 C 16,1 C 16,1 C 75 % 1019,5 hPa 0,0 l/m 0 min 0 min 0 W/m 0,0 km/h (0 Bft) 100,00 %
07.08.2020 02:56 18,5 C 16,7 C 16,1 C 75 % 1019,5 hPa 0,0 l/m 0 min 0 min 0 W/m 0,0 km/h (0 Bft) 100,00 %
07.08.2020 02:54 18,6 C 16,7 C 16,1 C 75 % 1019,5 hPa 0,0 l/m 0 min 0 min 0 W/m 0,0 km/h (0 Bft) 100,00 %
07.08.2020 02:52 18,6 C 16,7 C 16,1 C 75 % 1019,5 hPa 0,0 l/m 0 min 0 min 0 W/m 0,0 km/h (0 Bft) 100,00 %
07.08.2020 02:50 18,6 C 16,7 C 16,1 C 75 % 1019,5 hPa 0,0 l/m 0 min 0 min 0 W/m 0,0 km/h (0 Bft) 100,00 %
07.08.2020 02:48 18,7 C 16,7 C 16,1 C 75 % 1019,5 hPa 0,0 l/m 0 min 0 min 0 W/m 0,0 km/h (0 Bft) 100,00 %
07.08.2020 02:46 18,7 C 16,7 C 16,1 C 75 % 1019,5 hPa 0,0 l/m 0 min 0 min 0 W/m 0,0 km/h (0 Bft) 100,00 %
07.08.2020 02:44 18,7 C 16,7 C 16,1 C 75 % 1019,5 hPa 0,0 l/m 0 min 0 min 0 W/m 0,0 km/h (0 Bft) 100,00 %
07.08.2020 02:42 18,8 C 16,7 C 16,1 C 75 % 1019,5 hPa 0,0 l/m 0 min 0 min 0 W/m 0,0 km/h (0 Bft) 100,00 %
07.08.2020 02:40 18,8 C 16,7 C 16,1 C 75 % 1019,5 hPa 0,0 l/m 0 min 0 min 0 W/m 0,0 km/h (0 Bft) 100,00 %
07.08.2020 02:38 18,8 C 16,7 C 16,1 C 75 % 1019,5 hPa 0,0 l/m 0 min 0 min 0 W/m 0,0 km/h (0 Bft) 100,00 %
07.08.2020 02:36 18,9 C 16,7 C 16,1 C 75 % 1019,5 hPa 0,0 l/m 0 min 0 min 0 W/m 0,0 km/h (0 Bft) 97,87 %
07.08.2020 02:34 18,9 C 16,7 C 16,1 C 75 % 1019,5 hPa 0,0 l/m 0 min 0 min 0 W/m 0,0 km/h (0 Bft) 100,00 %
07.08.2020 02:32 18,9 C 16,7 C 16,1 C 75 % 1019,5 hPa 0,0 l/m 0 min 0 min 0 W/m 0,0 km/h (0 Bft) 100,00 %
07.08.2020 02:30 19,0 C 16,7 C 16,1 C 75 % 1019,5 hPa 0,0 l/m 0 min 0 min 0 W/m 0,0 km/h (0 Bft) 100,00 %
07.08.2020 02:28 19,0 C 16,7 C 16,7 C 74 % 1019,5 hPa 0,0 l/m 0 min 0 min 0 W/m 0,0 km/h (0 Bft) 97,87 %
07.08.2020 02:26 19,1 C 16,7 C 16,7 C 74 % 1019,6 hPa 0,0 l/m 0 min 0 min 0 W/m 0,0 km/h (0 Bft) 97,92 %
07.08.2020 02:24 19,1 C 16,7 C 16,7 C 74 % 1019,5 hPa 0,0 l/m 0 min 0 min 0 W/m 0,0 km/h (0 Bft) 97,87 %
07.08.2020 02:22 19,1 C 16,7 C 16,7 C 74 % 1019,6 hPa 0,0 l/m 0 min 0 min 0 W/m 0,0 km/h (0 Bft) 97,83 %
07.08.2020 02:20 19,2 C 16,7 C 16,7 C 74 % 1019,6 hPa 0,0 l/m 0 min 0 min 0 W/m 0,0 km/h (0 Bft) 97,87 %
07.08.2020 02:18 19,2 C 16,7 C 16,7 C 73 % 1019,6 hPa 0,0 l/m 0 min 0 min 0 W/m 0,0 km/h (0 Bft) 100,00 %
07.08.2020 02:16 19,2 C 16,7 C 16,7 C 73 % 1019,5 hPa 0,0 l/m 0 min 0 min 0 W/m 0,0 km/h (0 Bft) 100,00 %
07.08.2020 02:14 19,2 C 16,7 C 16,7 C 73 % 1019,5 hPa 0,0 l/m 0 min 0 min 0 W/m 0,0 km/h (0 Bft) 97,87 %
07.08.2020 02:12 19,3 C 16,7 C 16,7 C 73 % 1019,6 hPa 0,0 l/m 0 min 0 min 0 W/m 0,0 km/h (0 Bft) 100,00 %
07.08.2020 02:10 19,3 C 17,2 C 16,7 C 73 % 1019,5 hPa 0,0 l/m 0 min 0 min 0 W/m 0,0 km/h (0 Bft) 97,87 %
07.08.2020 02:08 19,3 C 17,2 C 16,7 C 73 % 1019,6 hPa 0,0 l/m 0 min 0 min 0 W/m 0,0 km/h (0 Bft) 100,00 %
07.08.2020 02:06 19,3 C 17,2 C 16,7 C 72 % 1019,5 hPa 0,0 l/m 0 min 0 min 0 W/m 0,0 km/h (0 Bft) 100,00 %
07.08.2020 02:04 19,3 C 17,2 C 16,7 C 72 % 1019,5 hPa 0,0 l/m 0 min 0 min 0 W/m 0,0 km/h (0 Bft) 100,00 %
07.08.2020 02:02 19,4 C 17,2 C 16,7 C 72 % 1019,5 hPa 0,0 l/m 0 min 0 min 0 W/m 0,0 km/h (0 Bft) 100,00 %
07.08.2020 02:00 19,4 C 17,2 C 16,7 C 72 % 1019,5 hPa 0,0 l/m 0 min 0 min 0 W/m 0,0 km/h (0 Bft) 97,87 %
07.08.2020 01:58 19,4 C 17,2 C 16,7 C 72 % 1019,5 hPa 0,0 l/m 0 min 0 min 0 W/m 0,0 km/h (0 Bft) 100,00 %
07.08.2020 01:56 19,4 C 17,2 C 16,7 C 72 % 1019,5 hPa 0,0 l/m 0 min 0 min 0 W/m 0,0 km/h (0 Bft) 100,00 %
07.08.2020 01:54 19,5 C 17,2 C 16,7 C 72 % 1019,5 hPa 0,0 l/m 0 min 0 min 0 W/m 0,0 km/h (0 Bft) 91,49 %
07.08.2020 01:52 19,5 C 17,8 C 17,2 C 72 % 1019,5 hPa 0,0 l/m 0 min 0 min 0 W/m 0,0 km/h (0 Bft) 93,62 %
07.08.2020 01:50 19,6 C 17,8 C 17,2 C 72 % 1019,5 hPa 0,0 l/m 0 min 0 min 0 W/m 0,0 km/h (0 Bft) 91,49 %
07.08.2020 01:48 19,6 C 17,8 C 17,2 C 72 % 1019,6 hPa 0,0 l/m 0 min 0 min 0 W/m 0,0 km/h (0 Bft) 95,65 %
07.08.2020 01:46 19,6 C 17,8 C 17,2 C 72 % 1019,5 hPa 0,0 l/m 0 min 0 min 0 W/m 0,0 km/h (0 Bft) 89,36 %
07.08.2020 01:44 19,6 C 17,8 C 17,2 C 72 % 1019,5 hPa 0,0 l/m 0 min 0 min 0 W/m 0,0 km/h (0 Bft) 93,62 %
07.08.2020 01:42 19,6 C 18,3 C 17,2 C 72 % 1019,5 hPa 0,0 l/m 0 min 0 min 0 W/m 0,0 km/h (0 Bft) 95,83 %
07.08.2020 01:40 19,7 C 18,3 C 17,2 C 72 % 1019,5 hPa 0,0 l/m 0 min 0 min 0 W/m 0,0 km/h (0 Bft) 95,74 %
07.08.2020 01:38 19,7 C 18,9 C 17,2 C 72 % 1019,5 hPa 0,0 l/m 0 min 0 min 0 W/m 0,0 km/h (0 Bft) 95,74 %
07.08.2020 01:36 19,8 C 18,9 C 17,2 C 72 % 1019,4 hPa 0,0 l/m 0 min 0 min 0 W/m 3,2 km/h (1 Bft) 93,48 %
07.08.2020 01:34 19,8 C 18,9 C 17,2 C 72 % 1019,4 hPa 0,0 l/m 0 min 0 min 0 W/m 3,2 km/h (1 Bft) 93,62 %
07.08.2020 01:32 19,8 C 18,3 C 17,2 C 71 % 1019,4 hPa 0,0 l/m 0 min 0 min 0 W/m 0,0 km/h (0 Bft) 91,84 %
07.08.2020 01:30 19,8 C 18,3 C 17,2 C 71 % 1019,4 hPa 0,0 l/m 0 min 0 min 0 W/m 0,0 km/h (0 Bft) 91,49 %
07.08.2020 01:28 19,9 C 18,3 C 17,2 C 71 % 1019,4 hPa 0,0 l/m 0 min 0 min 0 W/m 3,2 km/h (1 Bft) 89,36 %
07.08.2020 01:26 19,9 C 17,8 C 17,2 C 71 % 1019,4 hPa 0,0 l/m 0 min 0 min 0 W/m 0,0 km/h (0 Bft) 93,48 %
07.08.2020 01:24 19,9 C 17,8 C 17,2 C 70 % 1019,4 hPa 0,0 l/m 0 min 0 min 0 W/m 0,0 km/h (0 Bft) 93,62 %
07.08.2020 01:22 19,9 C 17,8 C 17,2 C 70 % 1019,4 hPa 0,0 l/m 0 min 0 min 0 W/m 0,0 km/h (0 Bft) 90,48 %
07.08.2020 01:20 20,0 C 18,3 C 17,2 C 70 % 1019,5 hPa 0,0 l/m 0 min 0 min 0 W/m 0,0 km/h (0 Bft) 93,48 %
07.08.2020 01:18 20,1 C 17,8 C 17,2 C 70 % 1019,4 hPa 0,0 l/m 0 min 0 min 0 W/m 0,0 km/h (0 Bft) 91,49 %
07.08.2020 01:16 20,1 C 17,8 C 17,2 C 70 % 1019,4 hPa 0,0 l/m 0 min 0 min 0 W/m 0,0 km/h (0 Bft) 95,74 %
07.08.2020 01:14 20,1 C 17,8 C 17,2 C 69 % 1019,4 hPa 0,0 l/m 0 min 0 min 0 W/m 0,0 km/h (0 Bft) 95,74 %
07.08.2020 01:12 20,2 C 17,8 C 17,2 C 70 % 1019,4 hPa 0,0 l/m 0 min 0 min 0 W/m 0,0 km/h (0 Bft) 95,74 %
07.08.2020 01:10 20,2 C 18,3 C 17,2 C 70 % 1019,4 hPa 0,0 l/m 0 min 0 min 0 W/m 0,0 km/h (0 Bft) 93,62 %
07.08.2020 01:08 20,2 C 18,3 C 17,2 C 70 % 1019,4 hPa 0,0 l/m 0 min 0 min 0 W/m 0,0 km/h (0 Bft) 91,30 %
07.08.2020 01:06 20,3 C 18,3 C 17,2 C 70 % 1019,4 hPa 0,0 l/m 0 min 0 min 0 W/m 0,0 km/h (0 Bft) 93,62 %
07.08.2020 01:04 20,3 C 18,3 C 17,2 C 70 % 1019,4 hPa 0,0 l/m 0 min 0 min 0 W/m 0,0 km/h (0 Bft) 94,34 %
07.08.2020 01:02 20,3 C 18,3 C 17,2 C 70 % 1019,4 hPa 0,0 l/m 0 min 0 min 0 W/m 0,0 km/h (0 Bft) 95,24 %
07.08.2020 01:00 20,4 C 18,3 C 17,2 C 69 % 1019,4 hPa 0,0 l/m 0 min 0 min 0 W/m 0,0 km/h (0 Bft) 95,74 %
07.08.2020 00:58 20,4 C 18,3 C 17,8 C 69 % 1019,4 hPa 0,0 l/m 0 min 0 min 0 W/m 0,0 km/h (0 Bft) 90,00 %
07.08.2020 00:56 20,4 C 18,3 C 17,8 C 69 % 1019,4 hPa 0,0 l/m 0 min 0 min 0 W/m 0,0 km/h (0 Bft) 95,74 %
07.08.2020 00:54 20,5 C 18,3 C 17,8 C 69 % 1019,5 hPa 0,0 l/m 0 min 0 min 0 W/m 0,0 km/h (0 Bft) 93,62 %
07.08.2020 00:52 20,6 C 18,3 C 17,8 C 69 % 1019,4 hPa 0,0 l/m 0 min 0 min 0 W/m 0,0 km/h (0 Bft) 95,74 %
07.08.2020 00:50 20,6 C 18,3 C 17,8 C 69 % 1019,5 hPa 0,0 l/m 0 min 0 min 0 W/m 0,0 km/h (0 Bft) 95,65 %
07.08.2020 00:48 20,6 C 18,3 C 17,8 C 68 % 1019,4 hPa 0,0 l/m 0 min 0 min 0 W/m 0,0 km/h (0 Bft) 97,87 %
07.08.2020 00:46 20,7 C 18,3 C 17,8 C 68 % 1019,5 hPa 0,0 l/m 0 min 0 min 0 W/m 0,0 km/h (0 Bft) 95,74 %
07.08.2020 00:44 20,7 C 18,3 C 17,8 C 69 % 1019,5 hPa 0,0 l/m 0 min 0 min 0 W/m 0,0 km/h (0 Bft) 100,00 %
07.08.2020 00:42 20,7 C 18,9 C 17,8 C 69 % 1019,4 hPa 0,0 l/m 0 min 0 min 0 W/m 0,0 km/h (0 Bft) 100,00 %
07.08.2020 00:40 20,8 C 18,9 C 17,8 C 68 % 1019,4 hPa 0,0 l/m 0 min 0 min 0 W/m 0,0 km/h (0 Bft) 100,00 %
07.08.2020 00:38 20,8 C 18,9 C 17,8 C 68 % 1019,4 hPa 0,0 l/m 0 min 0 min 0 W/m 0,0 km/h (0 Bft) 100,00 %
07.08.2020 00:36 20,8 C 18,9 C 17,8 C 68 % 1019,5 hPa 0,0 l/m 0 min 0 min 0 W/m 0,0 km/h (0 Bft) 100,00 %
07.08.2020 00:34 20,9 C 18,9 C 17,8 C 68 % 1019,4 hPa 0,0 l/m 0 min 0 min 0 W/m 0,0 km/h (0 Bft) 100,00 %
07.08.2020 00:32 20,9 C 18,9 C 17,8 C 68 % 1019,5 hPa 0,0 l/m 0 min 0 min 0 W/m 0,0 km/h (0 Bft) 100,00 %
07.08.2020 00:30 20,9 C 18,9 C 17,8 C 68 % 1019,4 hPa 0,0 l/m 0 min 0 min 0 W/m 0,0 km/h (0 Bft) 100,00 %
07.08.2020 00:28 21,0 C 18,9 C 17,8 C 68 % 1019,5 hPa 0,0 l/m 0 min 0 min 0 W/m 0,0 km/h (0 Bft) 97,87 %
07.08.2020 00:26 21,1 C 18,9 C 18,3 C 68 % 1019,4 hPa 0,0 l/m 0 min 0 min 0 W/m 0,0 km/h (0 Bft) 100,00 %
07.08.2020 00:24 21,1 C 18,9 C 18,3 C 68 % 1019,4 hPa 0,0 l/m 0 min 0 min 0 W/m 0,0 km/h (0 Bft) 100,00 %
07.08.2020 00:22 21,1 C 18,9 C 18,3 C 68 % 1019,4 hPa 0,0 l/m 0 min 0 min 0 W/m 0,0 km/h (0 Bft) 97,87 %
07.08.2020 00:20 21,2 C 18,9 C 18,3 C 68 % 1019,4 hPa 0,0 l/m 0 min 0 min 0 W/m 0,0 km/h (0 Bft) 100,00 %
07.08.2020 00:18 21,2 C 18,9 C 18,3 C 68 % 1019,4 hPa 0,0 l/m 0 min 0 min 0 W/m 0,0 km/h (0 Bft) 100,00 %
07.08.2020 00:16 21,3 C 18,9 C 18,3 C 68 % 1019,4 hPa 0,0 l/m 0 min 0 min 0 W/m 0,0 km/h (0 Bft) 100,00 %
07.08.2020 00:14 21,3 C 18,9 C 18,3 C 68 % 1019,4 hPa 0,0 l/m 0 min 0 min 0 W/m 0,0 km/h (0 Bft) 100,00 %
07.08.2020 00:12 21,3 C 18,9 C 18,3 C 68 % 1019,4 hPa 0,0 l/m 0 min 0 min 0 W/m 0,0 km/h (0 Bft) 100,00 %
07.08.2020 00:10 21,4 C 18,9 C 18,3 C 68 % 1019,4 hPa 0,0 l/m 0 min 0 min 0 W/m 0,0 km/h (0 Bft) 98,04 %
07.08.2020 00:08 21,4 C 18,9 C 18,3 C 68 % 1019,4 hPa 0,0 l/m 0 min 0 min 0 W/m 0,0 km/h (0 Bft) 100,00 %
07.08.2020 00:07 21,4 C 18,9 C 18,3 C 68 % 1019,4 hPa 0,0 l/m 0 min 0 min 0 W/m 0,0 km/h (0 Bft) 100,00 %
07.08.2020 00:04 21,6 C 18,9 C 18,3 C 68 % 1019,4 hPa 0,0 l/m 0 min 0 min 0 W/m 0,0 km/h (0 Bft) 100,00 %
07.08.2020 00:02 21,6 C 18,9 C 18,3 C 68 % 1019,4 hPa 0,0 l/m 0 min 0 min 0 W/m 0,0 km/h (0 Bft) 100,00 %
07.08.2020 00:00 21,6 C 18,9 C 18,3 C 68 % 1019,4 hPa 0,0 l/m 0 min 0 min 0 W/m 0,0 km/h (0 Bft) 100,00 %
06.08.2020 23:58 21,7 C 18,9 C 18,3 C 68 % 1019,4 hPa 0,0 l/m 0 min 0 min 0 W/m 0,0 km/h (0 Bft) 100,00 %
06.08.2020 23:56 21,7 C 18,9 C 18,3 C 68 % 1019,4 hPa 0,0 l/m 0 min 0 min 0 W/m 0,0 km/h (0 Bft) 97,87 %
06.08.2020 23:54 21,8 C 19,4 C 18,3 C 68 % 1019,4 hPa 0,0 l/m 0 min 0 min 0 W/m 0,0 km/h (0 Bft) 100,00 %
06.08.2020 23:52 21,8 C 19,4 C 18,9 C 67 % 1019,4 hPa 0,0 l/m 0 min 0 min 0 W/m 0,0 km/h (0 Bft) 100,00 %
06.08.2020 23:50 21,8 C 19,4 C 18,9 C 67 % 1019,4 hPa 0,0 l/m 0 min 0 min 0 W/m 0,0 km/h (0 Bft) 100,00 %
06.08.2020 23:48 21,9 C 19,4 C 18,9 C 67 % 1019,4 hPa 0,0 l/m 0 min 0 min 0 W/m 0,0 km/h (0 Bft) 100,00 %
06.08.2020 23:46 21,9 C 19,4 C 18,9 C 66 % 1019,4 hPa 0,0 l/m 0 min 0 min 0 W/m 0,0 km/h (0 Bft) 95,92 %
06.08.2020 23:44 21,9 C 19,4 C 18,9 C 66 % 1019,4 hPa 0,0 l/m 0 min 0 min 0 W/m 0,0 km/h (0 Bft) 100,00 %
06.08.2020 23:42 22,0 C 20,0 C 18,9 C 66 % 1019,4 hPa 0,0 l/m 0 min 0 min 0 W/m 0,0 km/h (0 Bft) 100,00 %
06.08.2020 23:40 22,0 C 20,0 C 18,9 C 66 % 1019,4 hPa 0,0 l/m 0 min 0 min 0 W/m 0,0 km/h (0 Bft) 100,00 %
06.08.2020 23:38 22,1 C 20,0 C 18,9 C 66 % 1019,4 hPa 0,0 l/m 0 min 0 min 0 W/m 0,0 km/h (0 Bft) 100,00 %
06.08.2020 23:36 22,1 C 20,0 C 18,9 C 66 % 1019,4 hPa 0,0 l/m 0 min 0 min 0 W/m 0,0 km/h (0 Bft) 100,00 %
06.08.2020 23:34 22,1 C 20,0 C 18,9 C 66 % 1019,4 hPa 0,0 l/m 0 min 0 min 0 W/m 0,0 km/h (0 Bft) 100,00 %
06.08.2020 23:32 22,2 C 20,0 C 18,9 C 66 % 1019,4 hPa 0,0 l/m 0 min 0 min 0 W/m 0,0 km/h (0 Bft) 97,92 %
06.08.2020 23:30 22,2 C 20,0 C 18,9 C 65 % 1019,3 hPa 0,0 l/m 0 min 0 min 0 W/m 0,0 km/h (0 Bft) 97,37 %
06.08.2020 23:28 22,2 C 20,0 C 19,4 C 65 % 1019,4 hPa 0,0 l/m 0 min 0 min 0 W/m 0,0 km/h (0 Bft) 98,18 %
06.08.2020 23:26 22,3 C 20,6 C 19,4 C 66 % 1019,4 hPa 0,0 l/m 0 min 0 min 0 W/m 0,0 km/h (0 Bft) 97,83 %
06.08.2020 23:24 22,3 C 20,6 C 19,4 C 65 % 1019,3 hPa 0,0 l/m 0 min 0 min 0 W/m 0,0 km/h (0 Bft) 97,92 %
06.08.2020 23:22 22,4 C 20,6 C 19,4 C 65 % 1019,3 hPa 0,0 l/m 0 min 0 min 0 W/m 0,0 km/h (0 Bft) 95,74 %
06.08.2020 23:20 22,4 C 20,6 C 19,4 C 66 % 1019,3 hPa 0,0 l/m 0 min 0 min 0 W/m 0,0 km/h (0 Bft) 97,87 %
06.08.2020 23:18 22,4 C 20,0 C 19,4 C 65 % 1019,3 hPa 0,0 l/m 0 min 0 min 0 W/m 0,0 km/h (0 Bft) 97,37 %
06.08.2020 23:16 22,5 C 20,0 C 19,4 C 65 % 1019,3 hPa 0,0 l/m 0 min 0 min 0 W/m 0,0 km/h (0 Bft) 98,00 %
06.08.2020 23:14 22,6 C 20,6 C 19,4 C 65 % 1019,3 hPa 0,0 l/m 0 min 0 min 0 W/m 0,0 km/h (0 Bft) 98,11 %
06.08.2020 23:12 22,6 C 20,6 C 19,4 C 65 % 1019,3 hPa 0,0 l/m 0 min 0 min 0 W/m 0,0 km/h (0 Bft) 97,87 %
06.08.2020 23:10 22,6 C 20,6 C 19,4 C 65 % 1019,3 hPa 0,0 l/m 0 min 0 min 0 W/m 0,0 km/h (0 Bft) 93,75 %
06.08.2020 23:08 22,7 C 20,6 C 19,4 C 65 % 1019,3 hPa 0,0 l/m 0 min 0 min 0 W/m 0,0 km/h (0 Bft) 97,92 %
06.08.2020 23:06 22,7 C 20,6 C 19,4 C 65 % 1019,3 hPa 0,0 l/m 0 min 0 min 0 W/m 0,0 km/h (0 Bft) 100,00 %
06.08.2020 23:04 22,7 C 20,6 C 19,4 C 65 % 1019,2 hPa 0,0 l/m 0 min 0 min 0 W/m 0,0 km/h (0 Bft) 96,00 %
06.08.2020 23:02 22,8 C 20,6 C 19,4 C 64 % 1019,3 hPa 0,0 l/m 0 min 0 min 0 W/m 0,0 km/h (0 Bft) 97,87 %
06.08.2020 23:00 22,8 C 20,6 C 19,4 C 64 % 1019,3 hPa 0,0 l/m 0 min 0 min 0 W/m 0,0 km/h (0 Bft) 95,65 %
06.08.2020 22:58 22,9 C 20,6 C 19,4 C 64 % 1019,2 hPa 0,0 l/m 0 min 0 min 0 W/m 0,0 km/h (0 Bft) 97,87 %
06.08.2020 22:56 22,9 C 20,6 C 19,4 C 64 % 1019,3 hPa 0,0 l/m 0 min 0 min 0 W/m 0,0 km/h (0 Bft) 94,00 %
06.08.2020 22:54 23,0 C 20,6 C 19,4 C 64 % 1019,3 hPa 0,0 l/m 0 min 0 min 0 W/m 0,0 km/h (0 Bft) 96,30 %
06.08.2020 22:52 23,0 C 20,6 C 19,4 C 64 % 1019,3 hPa 0,0 l/m 0 min 0 min 0 W/m 0,0 km/h (0 Bft) 97,30 %
06.08.2020 22:50 23,1 C 20,6 C 19,4 C 64 % 1019,2 hPa 0,0 l/m 0 min 0 min 0 W/m 0,0 km/h (0 Bft) 97,83 %
06.08.2020 22:48 23,1 C 20,6 C 19,4 C 64 % 1019,3 hPa 0,0 l/m 0 min 0 min 0 W/m 0,0 km/h (0 Bft) 97,87 %
06.08.2020 22:46 23,2 C 20,6 C 20,0 C 64 % 1019,3 hPa 0,0 l/m 0 min 0 min 0 W/m 0,0 km/h (0 Bft) 98,00 %
06.08.2020 22:44 23,2 C 20,6 C 20,0 C 63 % 1019,2 hPa 0,0 l/m 0 min 0 min 0 W/m 0,0 km/h (0 Bft) 100,00 %
06.08.2020 22:42 23,3 C 21,1 C 20,0 C 63 % 1019,3 hPa 0,0 l/m 0 min 0 min 0 W/m 0,0 km/h (0 Bft) 100,00 %
06.08.2020 22:40 23,3 C 21,1 C 20,0 C 63 % 1019,2 hPa 0,0 l/m 0 min 0 min 0 W/m 0,0 km/h (0 Bft) 97,92 %
06.08.2020 22:38 23,4 C 21,1 C 20,0 C 63 % 1019,3 hPa 0,0 l/m 0 min 0 min 0 W/m 0,0 km/h (0 Bft) 97,83 %
06.08.2020 22:36 23,4 C 20,6 C 20,0 C 63 % 1019,2 hPa 0,0 l/m 0 min 0 min 0 W/m 0,0 km/h (0 Bft) 97,92 %
06.08.2020 22:34 23,5 C 20,6 C 20,0 C 63 % 1019,3 hPa 0,0 l/m 0 min 0 min 0 W/m 0,0 km/h (0 Bft) 95,74 %
06.08.2020 22:32 23,6 C 20,6 C 20,0 C 63 % 1019,2 hPa 0,0 l/m 0 min 0 min 0 W/m 0,0 km/h (0 Bft) 93,75 %
06.08.2020 22:30 23,6 C 20,6 C 20,0 C 64 % 1019,2 hPa 0,0 l/m 0 min 0 min 0 W/m 0,0 km/h (0 Bft) 98,00 %
06.08.2020 22:28 23,7 C 20,6 C 20,0 C 63 % 1019,2 hPa 0,0 l/m 0 min 0 min 0 W/m 0,0 km/h (0 Bft) 97,62 %
06.08.2020 22:26 23,7 C 20,6 C 20,0 C 63 % 1019,2 hPa 0,0 l/m 0 min 0 min 0 W/m 0,0 km/h (0 Bft) 95,74 %
06.08.2020 22:24 23,8 C 20,6 C 20,0 C 63 % 1019,2 hPa 0,0 l/m 0 min 0 min 0 W/m 0,0 km/h (0 Bft) 97,87 %
06.08.2020 22:22 23,9 C 21,1 C 20,0 C 63 % 1019,1 hPa 0,0 l/m 0 min 0 min 0 W/m 0,0 km/h (0 Bft) 97,92 %
06.08.2020 22:20 23,9 C 21,1 C 20,6 C 63 % 1019,1 hPa 0,0 l/m 0 min 0 min 0 W/m 0,0 km/h (0 Bft) 97,92 %
06.08.2020 22:18 24,0 C 21,1 C 20,6 C 61 % 1019,1 hPa 0,0 l/m 0 min 0 min 0 W/m 0,0 km/h (0 Bft) 97,87 %
06.08.2020 22:16 24,1 C 21,1 C 20,6 C 61 % 1019,1 hPa 0,0 l/m 0 min 0 min 0 W/m 0,0 km/h (0 Bft) 93,88 %
06.08.2020 22:14 24,2 C 21,1 C 20,6 C 60 % 1019,1 hPa 0,0 l/m 0 min 0 min 0 W/m 0,0 km/h (0 Bft) 97,83 %
06.08.2020 22:12 24,2 C 21,7 C 20,6 C 61 % 1019,1 hPa 0,0 l/m 0 min 0 min 0 W/m 0,0 km/h (0 Bft) 97,37 %
06.08.2020 22:10 24,3 C 21,1 C 20,6 C 61 % 1019,1 hPa 0,0 l/m 0 min 0 min 0 W/m 0,0 km/h (0 Bft) 97,87 %
06.08.2020 22:08 24,3 C 21,1 C 20,6 C 62 % 1019,1 hPa 0,0 l/m 0 min 0 min 0 W/m 3,2 km/h (1 Bft) 95,74 %
06.08.2020 22:06 24,4 C 21,1 C 20,6 C 63 % 1019,1 hPa 0,0 l/m 0 min 0 min 0 W/m 3,2 km/h (1 Bft) 96,30 %
06.08.2020 22:04 24,5 C 21,1 C 20,6 C 63 % 1019,1 hPa 0,0 l/m 0 min 0 min 0 W/m 0,0 km/h (0 Bft) 95,65 %
06.08.2020 22:02 24,6 C 21,7 C 20,6 C 63 % 1019,0 hPa 0,0 l/m 0 min 0 min 0 W/m 0,0 km/h (0 Bft) 95,74 %
06.08.2020 22:00 24,6 C 21,7 C 20,6 C 63 % 1019,0 hPa 0,0 l/m 0 min 0 min 0 W/m 0,0 km/h (0 Bft) 95,92 %
06.08.2020 21:58 24,7 C 21,7 C 20,6 C 63 % 1019,0 hPa 0,0 l/m 0 min 0 min 0 W/m 0,0 km/h (0 Bft) 94,74 %
06.08.2020 21:56 24,8 C 21,7 C 20,6 C 62 % 1019,0 hPa 0,0 l/m 0 min 0 min 0 W/m 0,0 km/h (0 Bft) 93,62 %
06.08.2020 21:54 24,9 C 21,7 C 20,6 C 62 % 1019,0 hPa 0,0 l/m 0 min 0 min 0 W/m 0,0 km/h (0 Bft) 95,74 %
06.08.2020 21:52 24,9 C 21,7 C 20,6 C 62 % 1019,0 hPa 0,0 l/m 0 min 0 min 0 W/m 0,0 km/h (0 Bft) 98,11 %
06.08.2020 21:50 25,1 C 21,7 C 20,6 C 62 % 1018,9 hPa 0,0 l/m 0 min 0 min 0 W/m 0,0 km/h (0 Bft) 95,74 %
06.08.2020 21:48 25,1 C 21,7 C 21,1 C 62 % 1018,9 hPa 0,0 l/m 0 min 0 min 0 W/m 0,0 km/h (0 Bft) 97,96 %
06.08.2020 21:46 25,2 C 22,2 C 21,1 C 62 % 1018,9 hPa 0,0 l/m 0 min 0 min 0 W/m 0,0 km/h (0 Bft) 94,74 %
06.08.2020 21:44 25,3 C 22,2 C 21,1 C 62 % 1019,0 hPa 0,0 l/m 0 min 0 min 0 W/m 0,0 km/h (0 Bft) 98,15 %
06.08.2020 21:42 25,4 C 22,2 C 21,1 C 62 % 1018,9 hPa 0,0 l/m 0 min 0 min 0 W/m 0,0 km/h (0 Bft) 97,83 %
06.08.2020 21:40 25,5 C 22,2 C 21,1 C 61 % 1018,9 hPa 0,0 l/m 0 min 0 min 0 W/m 0,0 km/h (0 Bft) 97,87 %
06.08.2020 21:38 25,6 C 22,2 C 21,1 C 61 % 1018,8 hPa 0,0 l/m 0 min 0 min 0 W/m 0,0 km/h (0 Bft) 97,87 %
06.08.2020 21:36 25,7 C 22,2 C 21,1 C 62 % 1018,9 hPa 0,0 l/m 0 min 0 min 0 W/m 0,0 km/h (0 Bft) 95,92 %
06.08.2020 21:34 25,8 C 22,2 C 21,1 C 61 % 1018,8 hPa 0,0 l/m 0 min 0 min 0 W/m 0,0 km/h (0 Bft) 97,37 %
06.08.2020 21:32 25,9 C 22,2 C 21,1 C 61 % 1018,8 hPa 0,0 l/m 0 min 0 min 0 W/m 0,0 km/h (0 Bft) 97,87 %
06.08.2020 21:30 25,9 C 22,8 C 21,1 C 61 % 1018,8 hPa 0,0 l/m 0 min 0 min 0 W/m 0,0 km/h (0 Bft) 98,15 %
06.08.2020 21:28 26,1 C 22,8 C 21,7 C 61 % 1018,8 hPa 0,0 l/m 0 min 0 min 0 W/m 0,0 km/h (0 Bft) 97,87 %
06.08.2020 21:26 26,2 C 22,8 C 21,7 C 61 % 1018,8 hPa 0,0 l/m 0 min 0 min 0 W/m 0,0 km/h (0 Bft) 93,62 %
06.08.2020 21:24 26,3 C 22,8 C 21,7 C 61 % 1018,8 hPa 0,0 l/m 0 min 0 min 0 W/m 0,0 km/h (0 Bft) 97,92 %
06.08.2020 21:22 26,4 C 22,8 C 21,7 C 60 % 1018,8 hPa 0,0 l/m 0 min 0 min 0 W/m 0,0 km/h (0 Bft) 100,00 %
06.08.2020 21:20 26,5 C 22,8 C 21,7 C 60 % 1018,8 hPa 0,0 l/m 0 min 0 min 0 W/m 0,0 km/h (0 Bft) 98,18 %
06.08.2020 21:18 26,6 C 22,8 C 21,7 C 59 % 1018,8 hPa 0,0 l/m 0 min 0 min 0 W/m 0,0 km/h (0 Bft) 97,83 %
06.08.2020 21:16 26,7 C 23,3 C 21,7 C 60 % 1018,7 hPa 0,0 l/m 0 min 0 min 0 W/m 0,0 km/h (0 Bft) 97,92 %
06.08.2020 21:14 26,8 C 23,3 C 22,2 C 60 % 1018,7 hPa 0,0 l/m 0 min 0 min 0 W/m 0,0 km/h (0 Bft) 97,37 %
06.08.2020 21:12 26,9 C 23,3 C 22,2 C 60 % 1018,7 hPa 0,0 l/m 0 min 0 min 0 W/m 0,0 km/h (0 Bft) 98,18 %
06.08.2020 21:10 27,1 C 23,3 C 22,2 C 59 % 1018,7 hPa 0,0 l/m 0 min 0 min 5 W/m 0,0 km/h (0 Bft) 97,87 %
06.08.2020 21:08 27,2 C 23,3 C 22,2 C 59 % 1018,7 hPa 0,0 l/m 0 min 0 min 5 W/m 0,0 km/h (0 Bft) 97,92 %
06.08.2020 21:06 27,3 C 23,9 C 22,2 C 58 % 1018,7 hPa 0,0 l/m 0 min 0 min 5 W/m 0,0 km/h (0 Bft) 100,00 %
06.08.2020 21:04 27,4 C 23,9 C 22,2 C 59 % 1018,6 hPa 0,0 l/m 0 min 0 min 6 W/m 0,0 km/h (0 Bft) 100,00 %
06.08.2020 21:02 27,6 C 23,9 C 22,8 C 59 % 1018,7 hPa 0,0 l/m 0 min 0 min 7 W/m 0,0 km/h (0 Bft) 96,30 %
06.08.2020 21:00 27,7 C 23,9 C 22,8 C 57 % 1018,6 hPa 0,0 l/m 0 min 0 min 8 W/m 0,0 km/h (0 Bft) 100,00 %
06.08.2020 20:58 27,8 C 23,9 C 22,8 C 57 % 1018,6 hPa 0,0 l/m 0 min 0 min 9 W/m 0,0 km/h (0 Bft) 100,00 %
06.08.2020 20:56 27,9 C 23,9 C 22,8 C 58 % 1018,5 hPa 0,0 l/m 0 min 0 min 11 W/m 0,0 km/h (0 Bft) 100,00 %
06.08.2020 20:54 28,1 C 24,4 C 22,8 C 58 % 1018,6 hPa 0,0 l/m 0 min 0 min 11 W/m 0,0 km/h (0 Bft) 97,83 %
06.08.2020 20:52 28,2 C 24,4 C 22,8 C 57 % 1018,5 hPa 0,0 l/m 0 min 0 min 11 W/m 0,0 km/h (0 Bft) 100,00 %
06.08.2020 20:50 28,3 C 24,4 C 22,8 C 56 % 1018,6 hPa 0,0 l/m 0 min 0 min 12 W/m 0,0 km/h (0 Bft) 100,00 %
06.08.2020 20:48 28,4 C 24,4 C 23,3 C 56 % 1018,6 hPa 0,0 l/m 0 min 0 min 12 W/m 0,0 km/h (0 Bft) 100,00 %
06.08.2020 20:46 28,6 C 25,0 C 23,3 C 56 % 1018,5 hPa 0,0 l/m 0 min 0 min 13 W/m 0,0 km/h (0 Bft) 100,00 %
06.08.2020 20:44 28,8 C 25,0 C 23,3 C 55 % 1018,6 hPa 0,0 l/m 0 min 0 min 14 W/m 0,0 km/h (0 Bft) 100,00 %
06.08.2020 20:42 28,9 C 25,0 C 23,3 C 55 % 1018,5 hPa 0,0 l/m 0 min 0 min 15 W/m 0,0 km/h (0 Bft) 100,00 %
06.08.2020 20:40 29,1 C 25,0 C 23,3 C 54 % 1018,5 hPa 0,0 l/m 0 min 0 min 16 W/m 0,0 km/h (0 Bft) 100,00 %
06.08.2020 20:38 29,2 C 25,6 C 23,3 C 55 % 1018,5 hPa 0,0 l/m 0 min 0 min 18 W/m 0,0 km/h (0 Bft) 100,00 %
06.08.2020 20:36 29,4 C 25,6 C 23,9 C 55 % 1018,5 hPa 0,0 l/m 0 min 0 min 19 W/m 0,0 km/h (0 Bft) 100,00 %
06.08.2020 20:34 29,6 C 25,6 C 23,9 C 55 % 1018,4 hPa 0,0 l/m 0 min 0 min 19 W/m 0,0 km/h (0 Bft) 97,37 %
06.08.2020 20:32 29,7 C 25,6 C 23,9 C 54 % 1018,5 hPa 0,0 l/m 0 min 0 min 21 W/m 0,0 km/h (0 Bft) 97,87 %
06.08.2020 20:30 29,9 C 26,1 C 23,9 C 54 % 1018,5 hPa 0,0 l/m 0 min 0 min 21 W/m 0,0 km/h (0 Bft) 98,18 %
06.08.2020 20:28 30,1 C 26,1 C 24,4 C 53 % 1018,5 hPa 0,0 l/m 0 min 0 min 23 W/m 0,0 km/h (0 Bft) 97,44 %
06.08.2020 20:26 30,2 C 26,1 C 24,4 C 54 % 1018,5 hPa 0,0 l/m 0 min 0 min 23 W/m 0,0 km/h (0 Bft) 98,18 %
06.08.2020 20:24 30,4 C 26,1 C 24,4 C 53 % 1018,4 hPa 0,0 l/m 0 min 0 min 24 W/m 0,0 km/h (0 Bft) 97,87 %
06.08.2020 20:22 30,6 C 26,7 C 25,0 C 53 % 1018,4 hPa 0,0 l/m 0 min 0 min 25 W/m 0,0 km/h (0 Bft) 95,74 %
06.08.2020 20:20 30,7 C 26,7 C 25,0 C 52 % 1018,4 hPa 0,0 l/m 0 min 0 min 25 W/m 0,0 km/h (0 Bft) 97,83 %
06.08.2020 20:18 30,8 C 26,7 C 25,0 C 52 % 1018,4 hPa 0,0 l/m 0 min 0 min 26 W/m 0,0 km/h (0 Bft) 97,96 %
06.08.2020 20:16 30,9 C 27,2 C 25,6 C 50 % 1018,4 hPa 0,0 l/m 0 min 0 min 26 W/m 0,0 km/h (0 Bft) 97,37 %
06.08.2020 20:14 31,1 C 27,2 C 25,6 C 48 % 1018,4 hPa 0,0 l/m 0 min 0 min 27 W/m 0,0 km/h (0 Bft) 96,30 %
06.08.2020 20:12 31,2 C 27,8 C 25,6 C 48 % 1018,4 hPa 0,0 l/m 0 min 0 min 28 W/m 0,0 km/h (0 Bft) 97,87 %
06.08.2020 20:10 31,3 C 27,8 C 26,1 C 48 % 1018,4 hPa 0,0 l/m 0 min 0 min 29 W/m 0,0 km/h (0 Bft) 97,83 %
06.08.2020 20:08 31,3 C 28,3 C 26,7 C 46 % 1018,4 hPa 0,0 l/m 0 min 0 min 30 W/m 3,2 km/h (1 Bft) 97,87 %
06.08.2020 20:06 31,4 C 28,9 C 26,7 C 41 % 1018,3 hPa 0,0 l/m 0 min 0 min 30 W/m 3,2 km/h (1 Bft) 97,87 %
06.08.2020 20:04 31,4 C 28,9 C 27,2 C 42 % 1018,4 hPa 0,0 l/m 0 min 0 min 32 W/m 6,4 km/h (2 Bft) 95,74 %
06.08.2020 20:02 31,6 C 28,9 C 27,2 C 46 % 1018,4 hPa 0,0 l/m 0 min 0 min 32 W/m 0,0 km/h (0 Bft) 95,74 %
06.08.2020 20:00 31,6 C 29,4 C 27,8 C 39 % 1018,4 hPa 0,0 l/m 0 min 0 min 33 W/m 3,2 km/h (1 Bft) 95,74 %
06.08.2020 19:58 31,6 C 29,4 C 27,8 C 39 % 1018,3 hPa 0,0 l/m 0 min 0 min 33 W/m 3,2 km/h (1 Bft) 93,62 %
06.08.2020 19:56 31,7 C 29,4 C 28,3 C 38 % 1018,3 hPa 0,0 l/m 0 min 0 min 34 W/m 12,9 km/h (3 Bft) 93,62 %
06.08.2020 19:54 31,7 C 29,4 C 28,3 C 38 % 1018,3 hPa 0,0 l/m 0 min 0 min 35 W/m 6,4 km/h (2 Bft) 95,65 %
06.08.2020 19:52 31,8 C 29,4 C 28,3 C 38 % 1018,4 hPa 0,0 l/m 0 min 0 min 35 W/m 6,4 km/h (2 Bft) 91,49 %
06.08.2020 19:50 31,8 C 29,4 C 27,8 C 38 % 1018,4 hPa 0,0 l/m 0 min 0 min 37 W/m 12,9 km/h (3 Bft) 93,62 %
06.08.2020 19:48 31,9 C 29,4 C 27,8 C 38 % 1018,3 hPa 0,0 l/m 0 min 0 min 37 W/m 6,4 km/h (2 Bft) 95,74 %
06.08.2020 19:46 32,0 C 29,4 C 27,8 C 39 % 1018,4 hPa 0,0 l/m 0 min 0 min 39 W/m 3,2 km/h (1 Bft) 95,74 %
06.08.2020 19:44 32,1 C 30,0 C 28,3 C 38 % 1018,4 hPa 0,0 l/m 0 min 0 min 39 W/m 12,9 km/h (3 Bft) 95,74 %
06.08.2020 19:42 32,1 C 30,0 C 27,8 C 37 % 1018,4 hPa 0,0 l/m 0 min 0 min 40 W/m 12,9 km/h (3 Bft) 95,65 %
06.08.2020 19:40 32,1 C 30,0 C 27,8 C 37 % 1018,4 hPa 0,0 l/m 0 min 0 min 40 W/m 12,9 km/h (3 Bft) 94,74 %
06.08.2020 19:38 32,2 C 30,0 C 27,8 C 37 % 1018,4 hPa 0,0 l/m 0 min 0 min 41 W/m 12,9 km/h (3 Bft) 95,74 %
06.08.2020 19:36 32,3 C 30,0 C 27,2 C 37 % 1018,4 hPa 0,0 l/m 0 min 0 min 43 W/m 6,4 km/h (2 Bft) 94,92 %
06.08.2020 19:34 32,3 C 30,0 C 27,8 C 37 % 1018,4 hPa 0,0 l/m 0 min 0 min 44 W/m 6,4 km/h (2 Bft) 95,74 %
06.08.2020 19:32 32,4 C 30,0 C 27,8 C 37 % 1018,3 hPa 0,0 l/m 0 min 0 min 45 W/m 6,4 km/h (2 Bft) 91,43 %
06.08.2020 19:30 32,5 C 30,0 C 27,8 C 37 % 1018,4 hPa 0,0 l/m 0 min 0 min 46 W/m 12,9 km/h (3 Bft) 95,74 %
06.08.2020 19:28 32,6 C 30,0 C 27,2 C 37 % 1018,4 hPa 0,0 l/m 0 min 0 min 47 W/m 6,4 km/h (2 Bft) 95,65 %
06.08.2020 19:26 32,7 C 30,0 C 27,2 C 37 % 1018,4 hPa 0,0 l/m 0 min 0 min 49 W/m 3,2 km/h (1 Bft) 95,74 %
06.08.2020 19:24 32,8 C 30,0 C 27,2 C 36 % 1018,4 hPa 0,0 l/m 0 min 0 min 49 W/m 6,4 km/h (2 Bft) 95,74 %
06.08.2020 19:22 32,9 C 30,0 C 27,2 C 36 % 1018,4 hPa 0,0 l/m 0 min 0 min 51 W/m 6,4 km/h (2 Bft) 97,87 %
06.08.2020 19:20 33,1 C 29,4 C 27,2 C 38 % 1018,3 hPa 0,0 l/m 0 min 0 min 52 W/m 3,2 km/h (1 Bft) 97,87 %
06.08.2020 19:18 33,2 C 30,0 C 27,8 C 38 % 1018,3 hPa 0,0 l/m 0 min 0 min 53 W/m 3,2 km/h (1 Bft) 97,87 %
06.08.2020 19:16 33,3 C 30,0 C 27,8 C 37 % 1018,3 hPa 0,0 l/m 0 min 0 min 55 W/m 3,2 km/h (1 Bft) 97,83 %
06.08.2020 19:14 33,4 C 30,0 C 27,8 C 38 % 1018,3 hPa 0,0 l/m 0 min 0 min 104 W/m 3,2 km/h (1 Bft) 95,74 %
06.08.2020 19:12 33,6 C 30,6 C 27,8 C 36 % 1018,3 hPa 0,0 l/m 2 min 0 min 225 W/m 6,4 km/h (2 Bft) 97,87 %
06.08.2020 19:10 33,7 C 31,1 C 27,8 C 36 % 1018,3 hPa 0,0 l/m 2 min 0 min 267 W/m 3,2 km/h (1 Bft) 98,18 %
06.08.2020 19:08 33,8 C 31,7 C 27,8 C 36 % 1018,3 hPa 0,0 l/m 2 min 0 min 274 W/m 6,4 km/h (2 Bft) 97,87 %
06.08.2020 19:06 33,8 C 32,2 C 28,3 C 35 % 1018,3 hPa 0,0 l/m 2 min 0 min 280 W/m 6,4 km/h (2 Bft) 97,87 %
06.08.2020 19:04 33,9 C 32,8 C 28,3 C 35 % 1018,3 hPa 0,0 l/m 2 min 0 min 288 W/m 6,4 km/h (2 Bft) 97,87 %
06.08.2020 19:02 33,9 C 32,8 C 28,3 C 35 % 1018,3 hPa 0,0 l/m 2 min 0 min 294 W/m 6,4 km/h (2 Bft) 97,87 %
06.08.2020 19:00 33,9 C 32,8 C 28,3 C 36 % 1018,3 hPa 0,0 l/m 2 min 0 min 299 W/m 12,9 km/h (3 Bft) 100,00 %
06.08.2020 18:58 34,0 C 32,8 C 28,3 C 36 % 1018,4 hPa 0,0 l/m 2 min 0 min 305 W/m 6,4 km/h (2 Bft) 97,87 %
06.08.2020 18:56 34,1 C 32,8 C 28,3 C 35 % 1018,4 hPa 0,0 l/m 2 min 0 min 311 W/m 6,4 km/h (2 Bft) 100,00 %
06.08.2020 18:54 34,1 C 32,8 C 28,3 C 36 % 1018,4 hPa 0,0 l/m 2 min 0 min 319 W/m 6,4 km/h (2 Bft) 100,00 %
06.08.2020 18:52 34,2 C 33,3 C 28,3 C 36 % 1018,3 hPa 0,0 l/m 2 min 0 min 324 W/m 6,4 km/h (2 Bft) 97,87 %
06.08.2020 18:50 34,3 C 33,3 C 28,3 C 36 % 1018,4 hPa 0,0 l/m 2 min 0 min 331 W/m 6,4 km/h (2 Bft) 97,87 %
06.08.2020 18:48 34,3 C 33,3 C 28,3 C 37 % 1018,3 hPa 0,0 l/m 2 min 0 min 336 W/m 6,4 km/h (2 Bft) 100,00 %
06.08.2020 18:46 34,3 C 33,3 C 28,3 C 36 % 1018,3 hPa 0,0 l/m 2 min 0 min 342 W/m 6,4 km/h (2 Bft) 97,83 %
06.08.2020 18:44 34,3 C 33,9 C 28,9 C 36 % 1018,3 hPa 0,0 l/m 2 min 0 min 349 W/m 6,4 km/h (2 Bft) 97,87 %
06.08.2020 18:42 34,3 C 34,4 C 28,9 C 35 % 1018,3 hPa 0,0 l/m 2 min 0 min 355 W/m 6,4 km/h (2 Bft) 100,00 %
06.08.2020 18:40 34,2 C 34,4 C 28,9 C 35 % 1018,3 hPa 0,0 l/m 2 min 0 min 354 W/m 12,9 km/h (3 Bft) 97,87 %
06.08.2020 18:38 34,2 C 35,0 C 28,9 C 35 % 1018,3 hPa 0,0 l/m 2 min 0 min 360 W/m 6,4 km/h (2 Bft) 100,00 %
06.08.2020 18:36 34,2 C 34,4 C 28,3 C 35 % 1018,2 hPa 0,0 l/m 2 min 0 min 373 W/m 6,4 km/h (2 Bft) 100,00 %
06.08.2020 18:34 34,2 C 35,0 C 28,3 C 37 % 1018,3 hPa 0,0 l/m 2 min 0 min 383 W/m 3,2 km/h (1 Bft) 95,74 %
06.08.2020 18:32 34,2 C 35,0 C 28,9 C 37 % 1018,3 hPa 0,0 l/m 2 min 0 min 387 W/m 3,2 km/h (1 Bft) 100,00 %
06.08.2020 18:30 34,2 C 35,0 C 28,9 C 38 % 1018,3 hPa 0,0 l/m 2 min 0 min 394 W/m 3,2 km/h (1 Bft) 97,87 %
06.08.2020 18:28 34,1 C 35,6 C 29,4 C 37 % 1018,4 hPa 0,0 l/m 2 min 0 min 400 W/m 6,4 km/h (2 Bft) 100,00 %
06.08.2020 18:26 34,1 C 35,6 C 29,4 C 35 % 1018,4 hPa 0,0 l/m 2 min 0 min 405 W/m 6,4 km/h (2 Bft) 100,00 %
06.08.2020 18:24 34,1 C 35,6 C 30,0 C 35 % 1018,4 hPa 0,0 l/m 2 min 0 min 411 W/m 3,2 km/h (1 Bft) 97,87 %
06.08.2020 18:22 34,1 C 35,0 C 30,0 C 35 % 1018,4 hPa 0,0 l/m 2 min 0 min 418 W/m 6,4 km/h (2 Bft) 100,00 %
06.08.2020 18:20 34,0 C 35,6 C 30,0 C 36 % 1018,4 hPa 0,0 l/m 2 min 0 min 424 W/m 6,4 km/h (2 Bft) 100,00 %
06.08.2020 18:18 33,9 C 35,6 C 30,0 C 36 % 1018,4 hPa 0,0 l/m 2 min 0 min 430 W/m 6,4 km/h (2 Bft) 100,00 %
06.08.2020 18:16 33,9 C 35,0 C 30,0 C 35 % 1018,5 hPa 0,0 l/m 2 min 0 min 436 W/m 12,9 km/h (3 Bft) 100,00 %
06.08.2020 18:14 33,9 C 35,6 C 30,6 C 36 % 1018,4 hPa 0,0 l/m 2 min 0 min 442 W/m 12,9 km/h (3 Bft) 97,83 %
06.08.2020 18:12 33,9 C 35,6 C 30,6 C 35 % 1018,5 hPa 0,0 l/m 2 min 0 min 449 W/m 3,2 km/h (1 Bft) 100,00 %
06.08.2020 18:10 33,9 C 35,6 C 30,6 C 35 % 1018,5 hPa 0,0 l/m 2 min 0 min 455 W/m 6,4 km/h (2 Bft) 100,00 %
06.08.2020 18:08 33,9 C 35,0 C 30,6 C 35 % 1018,5 hPa 0,0 l/m 4 min 0 min 460 W/m 12,9 km/h (3 Bft) 98,94 %
06.08.2020 18:04 33,9 C 35,6 C 30,6 C 36 % 1018,5 hPa 0,0 l/m 2 min 0 min 465 W/m 6,4 km/h (2 Bft) 100,00 %
06.08.2020 18:02 33,9 C 35,6 C 30,6 C 38 % 1018,5 hPa 0,0 l/m 2 min 0 min 474 W/m 6,4 km/h (2 Bft) 97,87 %
06.08.2020 18:00 33,9 C 35,0 C 30,6 C 36 % 1018,5 hPa 0,0 l/m 2 min 0 min 481 W/m 12,9 km/h (3 Bft) 100,00 %
06.08.2020 17:58 33,9 C 35,6 C 30,6 C 36 % 1018,5 hPa 0,0 l/m 2 min 0 min 487 W/m 16,1 km/h (3 Bft) 97,87 %
06.08.2020 17:56 33,8 C 35,6 C 31,1 C 36 % 1018,4 hPa 0,0 l/m 2 min 0 min 493 W/m 12,9 km/h (3 Bft) 97,87 %
06.08.2020 17:54 33,8 C 36,1 C 31,1 C 36 % 1018,5 hPa 0,0 l/m 2 min 0 min 498 W/m 6,4 km/h (2 Bft) 97,87 %
06.08.2020 17:52 33,8 C 36,1 C 31,1 C 37 % 1018,5 hPa 0,0 l/m 2 min 0 min 504 W/m 16,1 km/h (3 Bft) 97,83 %
06.08.2020 17:50 33,7 C 35,6 C 31,1 C 36 % 1018,5 hPa 0,0 l/m 2 min 0 min 513 W/m 12,9 km/h (3 Bft) 95,74 %
06.08.2020 17:48 33,7 C 36,7 C 31,1 C 38 % 1018,5 hPa 0,0 l/m 2 min 0 min 522 W/m 6,4 km/h (2 Bft) 97,87 %
06.08.2020 17:46 33,7 C 36,7 C 31,1 C 38 % 1018,5 hPa 0,0 l/m 2 min 0 min 525 W/m 3,2 km/h (1 Bft) 97,87 %
06.08.2020 17:44 33,6 C 36,7 C 31,1 C 38 % 1018,5 hPa 0,0 l/m 2 min 0 min 532 W/m 3,2 km/h (1 Bft) 97,87 %
06.08.2020 17:42 33,6 C 36,7 C 30,6 C 38 % 1018,5 hPa 0,0 l/m 2 min 0 min 539 W/m 3,2 km/h (1 Bft) 93,62 %
06.08.2020 17:40 33,5 C 36,1 C 30,6 C 38 % 1018,5 hPa 0,0 l/m 2 min 0 min 545 W/m 9,7 km/h (2 Bft) 97,83 %
06.08.2020 17:38 33,5 C 36,7 C 31,1 C 40 % 1018,6 hPa 0,0 l/m 2 min 0 min 549 W/m 6,4 km/h (2 Bft) 95,74 %
06.08.2020 17:36 33,4 C 36,1 C 31,1 C 37 % 1018,5 hPa 0,0 l/m 4 min 0 min 557 W/m 6,4 km/h (2 Bft) 97,62 %
06.08.2020 17:32 33,4 C 35,0 C 30,6 C 37 % 1018,6 hPa 0,0 l/m 2 min 0 min 569 W/m 12,9 km/h (3 Bft) 95,74 %
06.08.2020 17:30 33,4 C 35,0 C 31,1 C 37 % 1018,6 hPa 0,0 l/m 2 min 0 min 575 W/m 12,9 km/h (3 Bft) 95,74 %
06.08.2020 17:28 33,5 C 35,0 C 31,1 C 36 % 1018,6 hPa 0,0 l/m 2 min 0 min 581 W/m 22,5 km/h (4 Bft) 93,62 %
06.08.2020 17:26 33,5 C 35,6 C 31,1 C 36 % 1018,6 hPa 0,0 l/m 2 min 0 min 576 W/m 16,1 km/h (3 Bft) 95,74 %
06.08.2020 17:24 33,5 C 36,1 C 31,1 C 37 % 1018,6 hPa 0,0 l/m 2 min 0 min 574 W/m 12,9 km/h (3 Bft) 95,65 %
06.08.2020 17:22 33,5 C 36,1 C 31,7 C 37 % 1018,5 hPa 0,0 l/m 2 min 0 min 578 W/m 3,2 km/h (1 Bft) 93,62 %
06.08.2020 17:20 33,4 C 36,1 C 31,7 C 37 % 1018,5 hPa 0,0 l/m 2 min 0 min 575 W/m 6,4 km/h (2 Bft) 93,62 %
06.08.2020 17:18 33,4 C 36,1 C 31,1 C 37 % 1018,5 hPa 0,0 l/m 2 min 0 min 605 W/m 9,7 km/h (2 Bft) 95,74 %
06.08.2020 17:16 33,4 C 35,6 C 31,1 C 37 % 1018,6 hPa 0,0 l/m 2 min 0 min 624 W/m 12,9 km/h (3 Bft) 95,74 %
06.08.2020 17:14 33,4 C 36,1 C 31,1 C 38 % 1018,6 hPa 0,0 l/m 2 min 0 min 626 W/m 12,9 km/h (3 Bft) 95,74 %
06.08.2020 17:12 33,4 C 35,6 C 31,7 C 37 % 1018,6 hPa 0,0 l/m 2 min 0 min 626 W/m 16,1 km/h (3 Bft) 95,65 %
06.08.2020 17:10 33,4 C 35,6 C 31,1 C 37 % 1018,6 hPa 0,0 l/m 2 min 0 min 601 W/m 16,1 km/h (3 Bft) 95,74 %
06.08.2020 17:08 33,4 C 35,6 C 31,1 C 37 % 1018,6 hPa 0,0 l/m 2 min 0 min 596 W/m 6,4 km/h (2 Bft) 95,74 %
06.08.2020 17:06 33,5 C 35,6 C 31,1 C 37 % 1018,6 hPa 0,0 l/m 2 min 0 min 583 W/m 6,4 km/h (2 Bft) 91,49 %
06.08.2020 17:04 33,6 C 35,6 C 31,1 C 38 % 1018,6 hPa 0,0 l/m 2 min 0 min 504 W/m 12,9 km/h (3 Bft) 95,74 %
06.08.2020 17:02 33,6 C 35,0 C 31,1 C 38 % 1018,6 hPa 0,0 l/m 2 min 0 min 555 W/m 6,4 km/h (2 Bft) 91,30 %
06.08.2020 17:00 33,6 C 34,4 C 31,1 C 36 % 1018,7 hPa 0,0 l/m 2 min 0 min 557 W/m 12,9 km/h (3 Bft) 95,74 %
06.08.2020 16:58 33,7 C 34,4 C 31,1 C 37 % 1018,7 hPa 0,0 l/m 2 min 0 min 557 W/m 19,3 km/h (3 Bft) 97,87 %
06.08.2020 16:56 33,8 C 34,4 C 31,1 C 36 % 1018,7 hPa 0,0 l/m 2 min 0 min 583 W/m 25,7 km/h (4 Bft) 95,74 %
06.08.2020 16:54 33,9 C 36,1 C 31,1 C 36 % 1018,7 hPa 0,0 l/m 2 min 0 min 624 W/m 16,1 km/h (3 Bft) 95,74 %
06.08.2020 16:52 33,9 C 36,7 C 31,7 C 37 % 1018,7 hPa 0,0 l/m 2 min 0 min 620 W/m 6,4 km/h (2 Bft) 95,74 %
06.08.2020 16:50 33,9 C 36,1 C 31,7 C 38 % 1018,6 hPa 0,0 l/m 2 min 0 min 596 W/m 6,4 km/h (2 Bft) 95,65 %
06.08.2020 16:48 33,9 C 36,1 C 31,7 C 36 % 1018,7 hPa 0,0 l/m 2 min 0 min 565 W/m 12,9 km/h (3 Bft) 93,62 %
06.08.2020 16:46 33,9 C 36,1 C 31,7 C 38 % 1018,7 hPa 0,0 l/m 2 min 0 min 584 W/m 12,9 km/h (3 Bft) 95,74 %
06.08.2020 16:44 33,9 C 36,1 C 31,7 C 39 % 1018,7 hPa 0,0 l/m 2 min 0 min 585 W/m 6,4 km/h (2 Bft) 95,74 %
06.08.2020 16:42 33,9 C 36,7 C 32,2 C 38 % 1018,6 hPa 0,0 l/m 2 min 0 min 628 W/m 12,9 km/h (3 Bft) 95,74 %
06.08.2020 16:40 33,9 C 36,7 C 32,2 C 39 % 1018,7 hPa 0,0 l/m 2 min 0 min 650 W/m 6,4 km/h (2 Bft) 95,74 %
06.08.2020 16:38 33,9 C 36,7 C 32,2 C 38 % 1018,6 hPa 0,0 l/m 2 min 0 min 646 W/m 6,4 km/h (2 Bft) 95,65 %
06.08.2020 16:36 33,9 C 36,1 C 32,2 C 37 % 1018,7 hPa 0,0 l/m 2 min 0 min 653 W/m 16,1 km/h (3 Bft) 95,74 %
06.08.2020 16:34 33,9 C 36,7 C 32,2 C 37 % 1018,7 hPa 0,0 l/m 2 min 0 min 646 W/m 16,1 km/h (3 Bft) 95,74 %
06.08.2020 16:32 33,9 C 36,7 C 32,2 C 37 % 1018,7 hPa 0,0 l/m 2 min 0 min 617 W/m 12,9 km/h (3 Bft) 93,62 %
06.08.2020 16:30 33,9 C 36,7 C 32,2 C 39 % 1018,7 hPa 0,0 l/m 2 min 0 min 631 W/m 6,4 km/h (2 Bft) 97,87 %
06.08.2020 16:28 33,8 C 37,2 C 32,2 C 39 % 1018,7 hPa 0,0 l/m 2 min 0 min 659 W/m 9,7 km/h (2 Bft) 97,87 %
06.08.2020 16:26 33,8 C 37,2 C 32,8 C 38 % 1018,6 hPa 0,0 l/m 2 min 0 min 642 W/m 6,4 km/h (2 Bft) 95,65 %
06.08.2020 16:24 33,8 C 37,2 C 32,2 C 38 % 1018,7 hPa 0,0 l/m 2 min 0 min 693 W/m 9,7 km/h (2 Bft) 97,87 %
06.08.2020 16:22 33,7 C 37,8 C 32,2 C 39 % 1018,7 hPa 0,0 l/m 2 min 0 min 721 W/m 6,4 km/h (2 Bft) 97,87 %
06.08.2020 16:20 33,6 C 37,2 C 32,2 C 38 % 1018,7 hPa 0,0 l/m 2 min 0 min 735 W/m 6,4 km/h (2 Bft) 97,87 %
06.08.2020 16:18 33,6 C 36,7 C 32,2 C 36 % 1018,7 hPa 0,0 l/m 2 min 0 min 765 W/m 16,1 km/h (3 Bft) 97,87 %
06.08.2020 16:16 33,6 C 37,2 C 32,2 C 38 % 1018,7 hPa 0,0 l/m 2 min 0 min 763 W/m 16,1 km/h (3 Bft) 95,74 %
06.08.2020 16:14 33,6 C 37,8 C 32,2 C 39 % 1018,7 hPa 0,0 l/m 2 min 0 min 772 W/m 6,4 km/h (2 Bft) 97,83 %
06.08.2020 16:12 33,4 C 37,2 C 32,2 C 37 % 1018,7 hPa 0,0 l/m 2 min 0 min 776 W/m 6,4 km/h (2 Bft) 97,87 %
06.08.2020 16:10 33,4 C 36,7 C 32,2 C 37 % 1018,8 hPa 0,0 l/m 2 min 0 min 776 W/m 12,9 km/h (3 Bft) 97,87 %
06.08.2020 16:08 33,5 C 36,7 C 32,2 C 37 % 1018,8 hPa 0,0 l/m 2 min 0 min 781 W/m 12,9 km/h (3 Bft) 97,87 %
06.08.2020 16:06 33,5 C 36,7 C 32,8 C 37 % 1018,7 hPa 0,0 l/m 2 min 0 min 774 W/m 12,9 km/h (3 Bft) 97,87 %
06.08.2020 16:04 33,6 C 36,7 C 32,8 C 37 % 1018,8 hPa 0,0 l/m 2 min 0 min 756 W/m 12,9 km/h (3 Bft) 97,87 %
06.08.2020 16:02 33,6 C 36,7 C 33,3 C 37 % 1018,8 hPa 0,0 l/m 2 min 0 min 731 W/m 12,9 km/h (3 Bft) 97,83 %
06.08.2020 16:00 33,6 C 37,2 C 33,3 C 38 % 1018,8 hPa 0,0 l/m 2 min 0 min 748 W/m 9,7 km/h (2 Bft) 97,87 %
_ Min-Zeit 03:22 02:58 02:30 14:28 18:36 - - - - 20:02 01:28
Minimum _ 18,1 C 16,1 C 16,1 C 34 % 1018,2 hPa - - - - 0,0 km/h (0 Bft) 89,36 %
_ Max-Zeit 15:02 13:50 14:06 03:18 08:58 16:00 17:36 16:00 14:00 16:56 18:00
Maximum _ 35,7 C 41,7 C 40,0 C 78 % 1020,7 hPa 0,0 l/m 4 min 0 min 903 W/m 25,7 km/h
O-NO (4 Bft)
100,00 %
Durchschnitt _ 26,9 C 27,7 C 25,2 C 55 % 1019,5 hPa #0,0 l/m #6:22 h #0 min. 530 W/m 6,7 km/h (2 Bft) 97,43 %
© 2020 W. Hausmann